GEFSSGP_500_meanwind_018.txt.gz
Wind_Speed
9 10 10 10 9 12 12 4 2 4 5 6 6 5 7 8 8 8 8 7 6 5 4 1 1 3 4 5 6 6 7 8 9 10 11 12 12 11 10 11 11 12 12 12 12 11 10 9 9
8 8 8 7 12 11 8 4 2 4 4 5 5 4 4 4 5 6 6 6 6 5 3 2 3 4 4 5 6 7 7 8 9 10 11 10 10 10 10 10 11 12 13 12 12 12 11 11 10
7 7 6 4 14 11 7 6 4 4 3 3 3 2 2 2 1 1 3 5 5 5 4 3 3 4 4 4 5 6 7 9 10 10 10 9 8 8 8 9 11 12 12 12 12 12 11 12 11
8 7 7 8 9 7 5 6 5 6 4 3 4 3 4 4 3 3 5 6 6 5 5 4 4 4 4 4 4 5 7 9 10 10 10 9 7 7 8 9 11 12 13 12 11 11 11 11 12
10 10 8 6 3 3 5 4 2 5 3 4 5 5 6 7 8 8 9 9 9 8 7 6 6 6 6 5 5 6 8 9 10 10 10 10 9 9 9 10 12 13 13 12 11 11 10 11 12
13 13 8 2 0 5 7 4 1 5 6 6 6 7 6 8 9 10 11 12 11 11 10 9 9 9 9 8 8 8 8 9 10 10 11 11 12 12 12 13 14 14 14 12 11 10 9 9 10
13 13 10 1 3 7 12 6 5 8 8 8 8 10 6 8 9 10 11 12 12 11 12 11 11 12 12 11 10 10 9 9 10 11 12 13 14 15 15 16 16 15 15 14 12 11 10 9 9
12 11 8 3 6 9 14 10 8 9 12 10 10 12 8 9 10 11 12 12 13 12 12 13 13 14 14 14 13 11 11 11 11 12 13 15 16 16 17 18 17 17 16 16 15 13 11 10 9
13 11 7 1 6 9 12 10 10 11 13 11 12 12 11 10 10 10 11 12 13 13 13 13 14 15 16 16 15 14 13 13 13 15 16 17 17 17 18 18 18 17 17 17 17 17 15 12 10
15 14 10 9 13 12 12 10 10 9 11 15 14 15 15 13 12 11 11 11 12 13 13 13 15 16 17 17 17 16 16 16 16 17 18 19 19 19 19 19 19 18 17 17 18 19 18 16 13
19 19 18 18 18 19 17 14 13 11 11 18 16 17 17 16 15 15 15 14 14 15 16 15 16 18 19 19 19 19 19 20 21 21 22 22 23 23 22 22 22 21 19 19 18 20 20 19 17
24 24 24 23 21 21 20 19 18 16 15 22 24 22 20 19 19 19 19 19 19 20 21 21 20 21 23 23 23 24 24 25 25 26 27 27 28 28 27 26 25 24 23 22 20 20 21 21 21
29 28 28 27 26 26 25 24 22 21 22 26 30 28 28 27 27 25 25 24 24 24 26 26 25 25 26 27 28 28 29 29 30 31 31 32 32 32 31 30 29 28 27 26 24 23 23 23 24
31 32 30 29 29 30 31 29 26 24 26 30 33 31 31 32 32 32 30 29 29 29 30 30 29 29 30 31 32 32 32 33 34 34 34 34 36 36 36 34 33 33 32 31 30 29 27 26 26
33 32 30 28 29 31 33 33 28 24 27 34 37 36 35 34 34 35 36 35 34 35 35 34 34 35 34 35 35 36 36 37 37 38 38 37 37 39 39 39 38 38 37 36 35 34 32 31 30
33 32 31 26 27 31 33 31 23 23 29 38 39 36 36 36 35 38 40 40 39 40 39 39 40 40 40 40 40 39 40 41 41 41 41 42 41 41 42 42 42 41 41 40 39 38 36 36 35
27 26 24 18 25 33 33 28 22 25 34 40 41 40 41 44 43 43 45 45 44 44 45 43 44 46 45 44 44 43 42 43 44 44 44 45 45 44 45 46 46 46 45 44 44 43 41 41 41
15 15 15 14 21 32 35 30 24 26 38 43 45 47 48 48 49 47 46 47 48 47 47 47 46 47 47 45 44 43 43 44 45 46 47 48 49 49 48 48 49 49 48 47 48 47 46 45 44
22 22 22 20 24 33 37 35 29 27 36 42 44 45 44 43 43 43 42 43 44 44 44 44 44 44 43 42 41 42 43 45 46 47 49 50 51 53 52 52 51 49 49 49 50 50 49 49 49
16 16 18 19 23 30 31 30 27 25 30 38 40 40 40 41 41 40 39 38 38 39 38 38 39 40 40 40 40 41 42 44 46 48 50 51 53 55 54 53 52 50 49 48 49 49 50 51 51
16 16 20 25 28 29 30 31 27 26 30 37 39 40 40 39 39 40 40 39 40 40 40 40 40 41 42 43 43 44 44 45 46 48 50 52 54 54 55 54 53 53 52 50 50 51 52 51 51
21 22 27 30 30 30 29 31 26 23 30 36 39 39 36 34 36 37 38 39 40 41 42 43 44 45 46 47 48 49 49 49 49 51 52 53 54 55 56 56 55 54 54 53 52 52 51 50 50
25 26 27 27 26 25 20 23 20 21 28 34 36 34 34 36 37 36 36 37 37 38 40 41 42 43 45 47 49 50 51 52 52 52 53 53 53 54 54 54 54 53 53 53 52 50 49 49 48
19 18 17 15 16 17 18 19 17 22 27 32 36 38 41 40 38 37 35 34 34 34 35 35 36 37 40 42 45 47 48 49 50 51 52 52 52 52 51 50 50 50 50 50 49 48 47 45 43
15 14 11 8 10 15 17 19 19 23 28 33 36 38 40 39 38 36 35 34 35 35 36 36 36 36 37 39 41 43 45 47 49 50 51 52 52 51 50 50 50 49 49 48 48 46 44 41 39
11 11 11 12 11 14 15 18 21 25 29 32 33 35 38 40 41 40 39 38 37 37 38 39 39 39 39 40 41 43 45 47 49 51 52 53 53 53 52 51 50 49 48 47 45 42 41 38 37
11 11 12 16 17 16 14 15 21 29 32 33 34 37 40 42 43 43 43 42 41 40 40 41 41 41 41 42 44 45 47 49 51 52 54 55 55 55 54 52 50 47 45 43 40 38 37 35 34
17 18 19 20 21 21 19 17 21 29 32 36 40 42 43 43 44 44 45 44 43 42 42 43 43 43 43 44 45 46 48 49 51 53 55 56 55 54 52 49 45 42 39 37 35 34 33 33 33
20 21 22 23 24 26 26 22 21 28 32 37 40 41 41 42 43 44 45 44 44 43 43 43 43 43 43 44 44 45 46 47 49 50 50 51 50 49 47 45 41 38 35 32 31 32 31 32 31
17 19 22 25 24 25 27 24 23 30 32 36 39 40 40 40 40 42 42 42 42 42 42 42 41 41 41 41 42 42 42 43 44 44 44 44 44 43 41 39 35 33 31 30 31 31 30 29 26

GEFSSGP_500_meanwind_024.txt.gz
Wind_Speed
11 11 10 8 5 3 7 13 13 10 9 11 10 10 12 11 8 5 6 5 4 5 5 5 5 6 7 8 8 8 8 9 10 11 11 12 11 11 11 13 14 16 17 16 15 14 14 13 12
9 8 7 6 4 5 8 11 9 8 7 7 7 8 10 10 8 7 7 7 6 5 5 6 6 6 6 6 6 6 7 8 9 9 10 10 10 10 10 12 13 15 16 16 15 14 13 13 13
8 7 5 3 3 6 8 9 8 5 5 5 4 5 6 7 6 5 5 6 7 7 8 8 8 8 6 5 5 6 7 8 8 9 9 9 10 10 10 11 13 15 16 17 16 15 14 13 13
9 6 3 3 3 7 8 8 8 7 5 4 4 4 3 4 4 4 4 5 6 8 9 10 10 9 9 8 8 8 9 10 10 10 10 9 10 10 11 12 13 15 16 16 16 15 14 13 13
10 7 4 5 2 7 7 7 7 8 9 6 5 5 5 5 6 7 8 7 7 8 9 10 11 11 11 11 11 12 12 13 13 13 12 11 11 11 12 13 14 15 15 16 15 15 14 13 12
11 9 7 7 3 4 5 5 7 9 11 8 6 6 6 5 6 8 9 9 9 10 10 10 11 12 13 13 14 15 15 16 16 15 14 13 13 13 14 15 15 16 16 16 16 15 14 13 12
12 10 9 8 4 1 1 2 5 9 11 10 7 8 8 7 6 7 9 10 10 11 11 11 11 12 12 13 14 16 17 18 17 16 16 15 15 15 16 16 17 17 17 17 16 16 16 15 13
15 13 11 11 7 1 0 3 7 10 12 11 10 10 9 9 8 7 9 11 11 11 12 12 12 11 12 13 14 15 17 18 18 18 17 16 16 16 17 18 18 19 18 18 17 17 17 17 16
17 17 15 15 13 6 2 4 9 12 14 14 12 12 11 11 10 7 7 10 11 11 11 12 12 12 12 13 14 15 16 18 18 18 18 17 18 18 19 19 20 20 19 18 18 17 17 18 18
17 19 19 18 16 11 5 5 9 14 18 20 19 18 15 14 13 9 8 10 12 12 12 13 14 15 15 15 16 16 17 18 19 19 20 20 20 20 21 21 21 21 20 19 18 18 18 18 18
18 20 21 21 19 14 10 8 11 17 22 24 24 24 22 19 16 16 15 14 15 16 16 18 20 20 20 19 20 20 20 20 21 22 23 23 23 24 24 24 24 23 22 21 20 18 18 18 18
22 22 23 23 21 18 14 13 14 18 24 27 28 29 28 26 23 22 21 20 21 21 20 21 23 25 26 25 25 26 25 25 25 25 26 27 27 27 27 28 28 27 25 23 22 21 20 19 19
25 25 25 23 22 21 20 20 20 20 25 30 32 33 33 32 30 26 24 24 24 24 24 24 24 26 29 30 29 30 30 30 30 29 29 30 30 30 30 30 30 29 29 27 25 24 23 23 22
29 27 24 22 22 23 25 25 25 23 25 31 34 35 36 36 35 32 29 27 27 28 28 29 28 29 31 33 34 33 33 33 33 33 34 34 33 33 34 34 33 32 31 30 28 27 26 25 25
31 28 26 24 24 25 28 28 27 24 25 30 33 36 38 38 38 37 35 34 33 33 34 35 34 34 35 37 39 38 37 36 36 36 36 36 36 36 37 37 36 35 34 33 31 30 29 28 28
31 30 28 26 27 27 29 29 26 25 25 27 30 33 36 38 39 40 40 39 38 37 37 38 38 37 38 39 40 42 41 39 38 37 37 37 38 38 39 40 39 39 38 36 34 32 32 32 33
31 30 27 25 27 28 29 29 26 26 25 26 29 32 36 38 39 40 39 39 38 37 36 36 35 36 36 37 38 38 39 39 39 39 39 39 39 39 40 40 40 41 40 39 37 36 35 35 36
27 26 22 21 23 24 25 25 24 24 25 26 29 32 35 37 38 37 37 37 37 36 35 36 36 36 37 36 36 37 37 38 38 39 39 40 40 40 40 40 40 42 42 41 40 38 37 37 38
21 20 19 20 22 22 23 25 25 26 26 29 32 34 35 35 35 35 35 36 36 36 38 38 38 38 38 39 39 38 38 38 38 38 39 40 41 41 42 41 42 43 42 42 41 40 38 37 38
15 17 21 24 25 25 25 27 28 29 29 32 35 35 34 33 33 32 33 35 34 37 38 37 38 38 39 39 40 41 40 40 40 40 40 40 41 42 43 43 43 43 43 42 40 40 39 37 38
15 19 21 23 24 27 30 31 31 33 35 36 36 34 31 30 30 31 32 33 34 35 37 37 37 37 37 37 38 39 40 39 39 39 39 40 41 42 43 44 44 44 44 43 42 42 41 39 38
17 19 19 19 22 26 31 34 33 33 33 32 29 28 26 27 29 31 32 32 33 35 35 35 36 36 36 37 38 38 38 38 37 36 36 37 38 39 40 41 42 43 43 42 41 41 41 39 38
16 16 16 16 17 19 22 25 21 21 20 21 22 23 23 24 27 30 30 32 32 33 34 34 36 38 38 38 38 39 40 39 38 37 36 35 35 36 37 38 39 40 41 41 41 41 41 40 38
9 10 9 11 11 12 13 15 13 14 14 16 18 20 22 25 27 28 30 31 32 32 33 34 36 38 40 40 40 40 41 41 41 40 39 38 37 37 37 38 39 40 41 41 42 42 42 41 41
5 5 5 7 9 9 12 15 15 16 18 19 22 24 26 28 29 29 30 31 33 33 34 35 36 37 38 39 40 41 42 42 43 42 42 40 40 39 39 40 40 41 42 43 44 44 43 43 43
4 6 5 5 5 6 10 15 17 19 21 24 26 28 29 29 30 31 32 34 35 36 37 37 38 39 39 39 40 41 41 42 43 44 44 43 43 42 42 42 43 43 44 45 45 45 45 44 44
7 7 9 10 9 8 10 15 20 22 25 26 27 28 28 30 31 33 35 36 37 37 38 39 40 41 41 41 41 41 41 41 42 43 44 44 44 44 44 44 44 44 45 45 45 44 43 43 42
10 10 12 13 14 11 8 10 17 21 24 25 27 29 31 33 34 35 36 37 37 37 38 39 40 40 41 41 41 40 39 39 40 40 41 42 43 43 43 43 43 43 42 42 42 41 40 39 38
11 12 13 14 15 17 15 12 18 21 23 25 27 30 32 33 35 35 36 37 37 37 37 39 40 41 41 41 41 39 38 37 36 37 38 39 40 41 41 41 41 40 39 37 36 36 34 33 32
11 14 15 17 18 20 21 21 22 24 26 28 30 32 34 36 37 37 38 39 39 38 38 38 39 40 41 41 40 39 37 35 35 35 36 37 37 37 37 37 36 34 33 32 31 31 29 28 27

GEFSSGP_500_meanwind_030.txt.gz
Wind_Speed
6 4 3 3 3 4 6 8 10 12 12 11 11 11 11 9 7 6 7 8 9 9 10 10 11 12 12 12 12 12 13 14 14 13 12 12 11 11 12 13 14 16 17 17 16 15 14 14 13
6 4 2 1 2 3 5 7 10 10 10 9 10 10 10 10 8 7 7 8 8 9 9 10 11 11 11 11 11 12 12 13 13 12 11 11 10 10 11 12 13 14 15 15 15 14 13 12 12
7 6 4 2 0 2 4 6 8 8 7 7 7 8 8 8 8 8 8 8 8 8 8 9 9 10 10 10 10 11 11 12 12 12 10 10 10 10 10 11 12 13 14 14 14 13 12 11 10
9 8 6 4 1 2 3 5 7 6 5 5 5 6 8 8 9 9 9 9 9 9 9 9 9 9 9 10 10 10 10 11 11 11 11 10 10 10 10 11 11 12 13 13 13 13 12 10 9
12 11 9 6 4 4 4 2 3 3 4 4 5 6 7 8 10 10 10 10 10 11 11 10 10 10 9 9 9 10 10 10 11 11 11 10 10 10 10 10 11 12 12 13 13 13 12 11 10
14 14 12 9 7 7 6 4 2 1 3 4 4 5 7 8 9 9 10 10 10 11 11 11 11 11 10 10 10 10 11 11 11 11 11 10 10 10 10 10 11 11 12 12 12 12 13 12 11
17 16 15 12 11 10 9 7 5 2 2 4 5 6 8 8 8 9 9 8 9 10 11 11 12 12 11 11 11 11 12 12 12 12 12 11 11 11 11 11 11 12 12 12 13 12 12 12 12
19 19 18 15 14 12 10 10 8 4 2 3 5 7 8 9 9 10 10 10 10 10 10 11 11 12 13 13 13 13 14 14 14 14 13 13 13 13 13 13 14 14 14 14 14 14 14 13 13
20 21 19 17 14 12 11 11 10 7 4 4 6 8 9 11 12 12 12 12 12 12 12 12 12 14 15 16 16 16 17 17 17 17 16 16 16 17 17 17 17 17 17 16 16 16 15 15 14
21 22 21 18 16 13 11 11 11 9 8 9 10 11 12 13 14 15 15 15 16 16 16 16 16 17 18 19 19 20 20 20 20 20 20 20 20 21 21 21 21 21 21 20 20 19 18 17 17
22 23 23 21 18 15 14 13 13 13 14 14 15 16 16 17 18 18 18 19 19 19 19 19 20 21 22 23 23 24 24 24 24 24 24 23 24 24 25 26 26 25 25 25 24 23 22 21 19
22 24 24 21 20 18 18 17 17 17 19 20 19 20 21 22 21 21 21 21 21 21 21 22 23 25 26 27 28 28 28 28 28 28 28 28 28 28 29 29 30 30 29 29 28 27 27 25 24
24 24 23 23 23 22 21 21 21 21 24 25 24 24 25 26 25 23 22 22 22 23 24 25 26 27 28 29 31 31 33 33 33 33 33 33 32 32 33 33 33 34 34 34 33 33 32 31 29
27 25 24 25 27 27 26 25 25 25 27 28 28 28 28 28 27 25 24 23 24 25 26 27 28 28 29 31 32 33 35 36 36 37 37 37 37 37 37 36 36 37 37 38 38 38 38 37 35
30 29 28 30 30 30 29 28 28 29 30 31 31 31 30 30 28 27 26 26 27 28 29 29 29 29 29 31 32 33 36 37 37 38 38 39 40 40 39 39 38 39 40 41 41 41 42 41 40
34 33 33 34 33 33 32 32 32 33 33 33 33 32 31 31 29 27 28 29 30 30 30 31 30 30 30 31 31 32 33 35 37 38 38 38 39 41 41 41 41 42 42 43 43 43 44 43 42
35 36 36 37 36 36 35 35 35 34 35 34 33 32 31 30 28 28 29 31 31 31 31 31 31 32 31 31 32 33 33 34 35 37 37 37 38 39 40 40 41 42 43 44 44 44 45 43 41
33 35 36 37 38 37 38 37 37 35 35 34 33 31 29 27 27 28 30 32 33 33 33 34 34 33 32 32 33 34 34 35 35 36 37 38 38 39 40 41 41 42 43 44 45 46 46 44 42
30 32 34 35 36 36 37 36 35 34 33 32 31 29 28 27 29 31 32 33 33 33 34 35 34 34 34 34 35 35 35 36 36 37 37 38 39 40 41 42 43 44 45 45 46 46 46 45 44
27 29 31 32 33 33 34 34 33 33 32 31 30 29 30 31 33 34 34 33 32 33 34 34 32 33 34 36 36 36 36 36 36 37 37 37 38 38 39 40 42 43 44 44 44 45 45 44 44
23 25 27 29 29 30 32 32 31 32 33 32 32 33 34 35 35 34 32 30 29 30 32 33 34 34 34 36 36 37 37 37 37 38 38 38 39 39 39 39 40 40 41 41 41 42 42 42 41
20 22 24 26 26 27 29 30 30 33 34 35 35 35 35 33 31 29 27 26 27 28 30 32 33 33 33 34 35 35 35 36 36 37 38 39 40 40 40 40 40 40 40 39 39 39 39 39 38
19 20 21 22 22 24 26 28 29 30 31 31 30 29 27 24 23 23 24 25 26 27 28 29 30 30 30 31 31 31 32 33 34 36 37 38 39 40 41 41 41 41 41 40 39 38 37 37 36
15 17 17 17 18 19 21 22 22 23 23 23 23 22 21 21 22 23 23 25 26 26 27 28 28 29 28 28 28 29 31 32 33 35 36 37 38 39 40 40 41 42 42 41 40 39 38 37 36
12 12 13 13 13 14 17 17 17 18 19 20 20 21 21 21 22 23 23 23 24 25 26 27 27 27 27 27 28 29 31 32 34 35 36 36 37 37 38 39 40 41 41 41 41 40 39 39 38
11 11 12 12 12 13 16 17 17 18 18 19 19 20 20 20 21 21 22 23 24 25 26 27 27 28 29 30 31 31 32 34 35 36 36 37 37 36 36 37 38 39 40 41 41 41 40 40 40
13 12 12 14 14 15 16 17 18 18 18 18 18 19 19 20 21 22 23 25 26 27 29 30 31 32 33 34 35 35 36 36 37 37 38 38 38 36 36 35 35 36 37 39 39 40 40 40 40
12 12 13 15 17 16 16 18 19 19 19 20 21 22 23 24 25 26 28 29 31 32 34 35 36 36 37 38 38 38 39 39 38 39 39 39 38 37 36 34 34 34 35 36 37 38 39 39 39
12 12 14 16 18 20 20 21 20 22 24 25 26 27 28 30 31 31 33 35 37 38 39 40 40 40 40 41 41 41 41 40 40 40 39 39 38 38 36 34 33 32 32 33 34 35 35 35 35
14 15 17 20 21 23 25 28 26 27 28 30 31 32 33 34 36 37 39 40 42 43 44 44 45 45 45 44 44 44 43 41 41 40 40 39 38 38 36 34 32 30 30 29 30 31 31 31 30

GEFSSGP_500_meanwind_036.txt.gz
Wind_Speed
6 7 8 8 9 8 5 6 7 9 9 9 9 9 8 7 7 6 6 6 6 6 6 6 6 5 5 5 5 6 7 8 8 8 8 7 7 7 8 8 9 9 9 9 9 9 8 8 8
3 4 5 6 9 4 3 3 5 7 8 8 8 8 8 8 7 6 5 5 5 5 5 5 5 4 4 4 5 6 6 7 7 7 7 6 6 6 6 6 6 7 8 8 8 8 7 7 6
3 2 2 3 4 1 3 3 2 4 5 5 6 6 6 6 6 5 4 4 4 4 4 4 4 4 4 5 5 6 6 6 7 7 6 5 5 5 4 4 5 5 6 7 7 7 7 6 5
5 3 2 1 2 3 3 4 4 3 2 2 3 3 3 4 3 3 3 3 3 3 4 4 4 4 5 5 5 6 6 6 6 7 6 5 5 4 4 4 5 5 6 7 7 7 7 6 6
8 6 4 4 5 4 3 4 4 3 2 1 1 1 2 3 3 3 3 4 4 4 4 3 3 4 4 5 5 6 6 6 6 6 6 6 5 5 5 6 6 6 7 7 8 8 8 8 7
12 10 8 8 8 6 5 5 5 5 4 2 1 0 1 2 3 3 4 4 5 5 5 4 4 4 5 5 6 7 7 7 7 8 8 7 7 7 7 8 8 8 8 9 9 9 10 10 10
16 14 13 12 11 9 6 5 6 5 5 3 2 1 2 2 3 4 5 6 6 7 7 7 8 8 8 9 9 10 10 10 11 11 11 10 10 10 11 11 11 11 11 11 11 11 11 12 12
19 17 15 14 13 12 8 7 6 4 4 3 3 3 4 5 6 7 8 9 10 10 11 12 12 13 13 14 14 14 14 15 15 15 15 15 15 15 15 15 15 15 15 15 15 15 14 15 15
20 19 18 18 16 14 11 9 7 6 5 5 5 6 7 9 10 11 12 13 14 15 15 16 17 18 19 19 19 19 19 19 19 19 19 19 19 19 19 20 20 20 19 19 19 18 18 18 18
21 21 22 21 18 15 13 11 9 8 7 8 9 10 11 13 14 14 15 16 17 18 19 19 21 21 22 22 22 22 22 22 22 23 23 23 23 24 24 25 25 25 24 24 24 24 23 22 22
21 23 23 21 20 17 16 13 12 10 10 11 12 13 14 16 16 17 18 19 20 20 21 22 23 23 24 23 24 24 24 24 25 25 26 26 27 27 28 29 30 30 29 29 29 29 28 27 26
23 23 23 22 21 19 18 17 15 14 15 15 15 16 17 19 20 21 22 22 23 23 24 23 24 24 25 25 25 26 26 27 27 28 28 29 30 30 31 32 34 34 35 35 34 34 33 32 31
26 24 24 24 23 21 21 20 19 19 19 17 18 19 20 22 23 24 25 26 26 26 26 26 26 26 26 26 27 27 27 27 28 29 30 30 31 32 33 34 35 37 39 39 39 38 38 36 35
29 27 26 26 26 24 23 23 23 22 21 21 22 23 24 26 27 27 28 29 29 29 29 28 28 28 27 27 27 27 27 28 28 29 30 30 31 31 32 33 34 36 38 39 40 41 41 39 38
31 29 29 30 29 27 26 27 28 25 25 25 26 27 28 29 29 30 30 31 31 31 31 30 30 30 28 28 27 27 27 27 28 29 29 30 30 31 31 31 32 34 36 38 38 40 41 41 41
32 32 30 34 31 30 28 29 33 29 29 29 30 30 31 31 31 31 31 32 32 32 32 32 32 31 29 29 28 28 27 27 27 27 28 28 29 29 30 31 31 33 34 36 37 38 39 41 41
31 31 31 34 34 32 31 35 35 33 33 34 33 33 32 32 31 31 31 32 32 32 32 32 33 32 31 31 30 28 27 26 25 25 25 26 26 27 28 29 31 32 34 35 37 38 39 40 40
26 29 31 33 36 35 35 37 38 38 37 36 35 33 32 31 30 30 31 32 33 33 33 33 34 34 33 32 29 27 25 24 23 23 23 23 24 25 26 28 29 31 33 35 36 38 39 40 41
24 26 28 33 36 35 37 38 39 38 37 36 33 31 30 30 29 30 31 33 34 35 36 36 36 34 33 31 28 26 24 22 22 20 20 20 21 22 24 26 28 30 32 34 36 38 40 40 41
19 20 22 27 32 33 35 35 35 35 34 32 30 29 29 30 31 31 33 35 36 38 37 36 35 34 32 29 27 24 22 21 19 19 19 20 20 22 23 25 27 29 32 34 36 38 39 40 41
12 14 17 21 25 26 28 27 29 30 30 30 30 30 30 31 32 33 35 37 38 37 36 35 34 33 31 29 26 23 21 20 20 20 21 21 21 23 24 25 27 29 31 33 35 37 39 40 41
10 15 16 18 18 18 21 17 24 26 27 28 28 29 30 31 33 35 36 36 35 34 33 33 33 33 31 28 25 23 22 22 23 23 23 23 24 24 25 26 28 29 31 32 34 36 38 39 40
12 14 14 15 15 15 17 13 17 24 23 24 25 25 25 26 28 29 30 31 31 30 31 33 34 33 30 28 26 26 25 25 25 25 25 25 25 25 26 26 28 30 31 32 33 34 36 38 39
11 12 12 12 11 10 13 10 16 19 19 20 20 20 21 23 25 26 28 29 30 31 33 34 34 33 31 30 29 29 29 29 29 28 27 27 26 26 27 27 28 30 31 32 33 33 34 36 37
11 10 9 9 8 10 15 12 16 16 17 18 19 20 21 23 25 28 30 31 32 34 35 36 35 35 34 34 34 34 33 33 32 31 29 29 28 28 28 28 29 30 31 32 33 33 33 34 35
11 11 10 11 11 12 17 16 18 17 18 19 21 22 23 24 27 29 31 33 34 35 37 37 38 38 39 38 38 37 37 36 34 33 32 31 30 30 29 29 29 30 31 32 33 33 33 33 33
10 11 12 13 14 15 14 20 20 20 21 22 23 25 26 28 30 32 33 35 37 38 39 40 41 42 42 42 41 41 40 38 37 36 34 34 32 31 30 30 29 30 31 32 33 33 32 31 32
10 11 11 12 13 14 15 18 23 21 22 24 26 29 31 34 35 36 38 39 41 42 44 45 45 46 46 46 45 44 43 41 40 39 37 35 34 32 31 30 30 30 31 31 32 32 32 31 31
12 13 13 15 17 18 18 22 26 26 28 30 32 35 37 39 40 42 43 44 45 46 47 48 48 49 50 49 49 48 47 46 44 42 40 38 36 34 33 32 31 31 31 32 32 32 31 30 29
15 16 17 19 21 23 24 29 28 30 32 34 36 38 40 42 44 45 46 48 49 49 51 51 52 53 54 54 55 54 54 52 49 47 45 42 39 37 35 33 32 32 31 31 32 32 31 29 28

GEFSSGP_500_meanwind_042.txt.gz
Wind_Speed
13 13 12 10 12 16 8 1 2 3 2 0 2 4 4 1 0 2 2 1 0 0 1 1 1 2 2 3 4 6 7 7 7 7 7 7 7 7 7 7 7 8 8 9 9 9 9 9 9
10 10 9 8 11 13 3 5 5 4 2 1 1 2 1 2 2 2 2 1 2 2 3 2 3 3 3 4 5 6 7 7 7 7 7 7 7 7 7 7 7 8 8 8 8 9 9 8 8
7 7 6 6 7 7 3 6 6 5 3 4 4 3 2 2 2 2 2 2 3 4 5 5 5 5 5 5 6 7 7 8 8 8 8 8 9 9 9 8 9 9 9 8 8 8 9 9 8
5 6 5 7 5 3 3 7 4 4 5 5 6 4 5 4 4 4 4 3 4 6 7 7 7 7 7 7 8 8 9 9 9 10 10 10 10 11 11 10 10 10 10 10 10 10 10 10 10
4 5 3 6 6 3 5 8 5 6 6 6 8 6 6 6 5 5 5 5 5 6 7 7 8 8 8 9 9 10 10 11 12 12 13 13 13 13 12 12 12 12 12 12 12 11 11 11 11
7 6 1 10 10 4 6 8 8 8 5 6 9 7 7 7 7 6 6 7 7 7 8 8 8 9 10 10 11 12 13 14 15 16 16 16 15 15 14 14 14 14 14 14 14 13 13 13 13
10 9 5 7 11 8 8 9 9 9 5 6 9 11 9 8 7 7 8 9 9 10 10 10 11 11 12 13 14 15 16 17 18 19 19 18 18 18 17 17 17 17 16 16 16 16 16 15 15
12 11 7 4 12 12 11 10 11 11 12 9 9 14 10 8 8 9 10 11 12 12 13 13 14 14 15 16 17 18 19 20 21 21 21 21 21 21 20 20 20 20 19 19 19 19 19 18 18
14 13 7 5 12 13 12 10 11 13 15 13 14 17 14 12 11 12 12 13 15 15 15 15 16 16 17 18 19 19 20 21 22 22 23 23 23 23 23 23 24 23 23 22 22 22 22 22 22
16 15 10 11 15 12 13 11 11 10 13 16 16 19 15 13 14 14 14 15 17 18 18 18 18 19 19 20 21 21 22 22 23 24 24 25 25 25 25 25 26 26 26 26 26 25 26 26 26
19 19 18 18 19 21 18 14 13 11 14 20 21 19 13 13 16 17 17 18 19 20 21 22 22 22 23 23 23 24 23 24 24 25 26 26 26 27 27 26 27 28 28 28 28 28 28 29 29
22 24 24 25 24 24 23 20 17 14 17 23 24 23 20 19 20 21 21 21 22 24 25 25 26 26 26 26 27 26 26 26 26 26 26 27 27 27 27 28 28 28 28 29 29 29 29 30 31
24 25 25 26 26 25 24 22 21 18 18 24 26 28 26 25 24 24 25 25 25 27 28 29 29 29 28 29 29 29 28 28 28 27 27 28 28 28 28 28 28 29 29 29 29 30 30 30 32
23 25 26 27 26 25 24 24 22 21 22 26 28 28 28 28 28 28 28 27 28 30 31 32 32 31 31 30 30 30 29 28 28 28 28 28 28 29 29 29 28 27 28 28 28 28 29 30 30
22 24 25 25 24 22 24 25 21 21 25 29 30 29 29 30 31 33 33 32 33 34 35 35 34 33 32 32 32 31 30 28 28 29 29 28 28 28 28 27 26 25 26 26 26 27 28 29 29
20 21 22 20 20 21 24 24 20 24 29 31 31 30 30 32 33 35 37 38 37 38 37 37 36 35 34 33 33 31 30 29 28 28 28 27 27 27 26 25 24 24 24 24 24 25 26 27 28
12 15 15 13 16 21 23 22 21 28 31 31 29 30 33 35 35 37 39 39 40 41 39 37 37 37 36 35 33 31 29 28 28 28 27 27 26 25 24 23 23 22 22 22 22 22 23 24 26
8 10 12 11 16 25 24 20 21 28 29 30 32 34 36 38 37 37 39 40 40 40 38 37 37 38 38 36 35 33 30 29 29 28 27 26 25 24 24 23 22 22 21 21 20 21 22 23 25
16 16 14 13 19 26 26 22 24 26 30 33 35 36 38 38 37 38 39 37 38 39 41 39 38 38 38 37 36 34 31 29 29 27 25 25 25 24 23 22 21 21 21 21 21 22 23 24 26
8 10 12 15 19 23 27 26 24 26 30 34 36 37 38 37 37 37 36 36 38 39 41 39 38 38 38 36 35 33 31 30 28 27 25 24 24 23 22 22 22 21 21 22 22 23 23 24 26
6 9 13 17 20 21 21 20 18 20 27 32 31 32 32 33 32 33 35 37 37 38 38 38 38 39 39 38 36 33 32 31 30 27 25 25 24 24 23 23 23 23 23 23 23 23 24 25 27
8 13 16 17 18 18 17 19 19 23 29 32 30 29 27 27 30 33 35 34 36 37 37 39 40 40 40 39 37 34 33 32 31 29 27 26 26 25 25 25 25 25 25 25 25 25 25 26 27
11 13 13 12 12 13 13 17 21 26 29 30 27 27 29 28 29 30 32 34 36 37 38 38 37 38 38 37 37 35 34 32 31 30 29 29 29 28 28 29 29 29 28 28 28 28 28 28 28
11 9 7 11 15 18 18 20 20 24 25 27 29 30 31 30 29 30 31 32 34 35 36 36 36 37 38 38 38 37 36 34 33 33 32 32 32 32 32 32 32 33 32 32 31 31 30 30 30
12 10 10 14 20 24 17 11 17 20 22 26 29 30 31 32 32 32 32 33 34 36 37 38 39 39 41 41 41 41 40 39 38 37 36 36 36 36 36 36 36 36 36 35 34 34 33 32 31
9 8 10 15 17 20 22 19 23 24 24 27 29 30 32 33 35 36 36 37 38 39 41 42 43 44 45 45 46 46 46 45 44 43 42 41 41 40 40 40 39 39 38 38 37 35 34 33 32
11 9 10 13 13 13 15 25 27 28 30 28 29 32 36 38 40 41 42 43 44 45 46 47 49 50 51 51 52 52 52 52 52 51 50 48 47 45 44 43 42 41 40 40 39 37 35 34 33
14 14 13 14 16 16 15 26 32 32 34 35 36 38 40 42 44 45 47 48 49 51 52 53 54 55 56 56 57 58 58 58 58 57 57 56 54 52 50 48 45 43 42 41 40 38 36 35 34
14 15 16 18 19 20 21 27 31 35 38 40 40 42 44 46 48 50 52 53 54 55 56 57 58 58 59 60 61 61 62 62 63 62 62 61 60 57 55 53 51 47 45 43 42 40 38 36 34
13 17 19 21 22 23 25 32 33 36 39 41 44 47 49 51 53 55 56 57 57 58 59 60 61 62 62 63 64 64 65 66 66 66 66 65 64 62 61 58 55 52 49 47 44 41 39 37 35

GEFSSGP_500_meanwind_048.txt.gz
Wind_Speed
11 10 10 9 8 7 4 4 3 1 3 4 5 6 6 4 1 1 1 2 2 1 2 2 3 3 4 4 4 4 5 5 6 7 7 8 8 9 10 10 11 11 11 11 10 10 10 10 10
10 8 6 7 6 5 3 2 2 3 3 1 1 3 3 3 3 2 1 3 3 3 3 3 4 4 4 5 5 5 5 5 6 6 7 7 8 9 9 9 10 10 10 10 10 10 10 10 9
8 6 4 4 4 2 1 1 1 3 4 3 2 2 2 3 4 4 3 4 4 4 4 4 4 5 5 6 6 6 6 6 6 7 7 8 8 9 9 10 10 10 10 10 10 10 10 10 9
8 8 6 6 5 2 4 3 2 2 4 5 5 4 3 5 6 5 5 6 5 5 4 5 5 5 6 6 7 7 7 7 7 8 8 9 9 9 10 10 10 10 10 10 10 10 10 10 10
11 9 8 8 9 6 7 7 4 4 5 7 7 6 5 5 7 6 6 6 6 6 6 6 6 7 7 7 8 8 9 9 9 10 10 11 11 11 11 11 11 11 11 11 11 11 11 11 11
13 10 10 11 11 7 8 8 7 9 9 10 9 8 7 7 8 8 8 7 7 7 7 8 8 9 9 10 10 10 11 11 12 12 13 13 13 13 13 13 13 13 13 14 14 14 13 13 13
15 12 10 10 9 7 9 10 10 10 10 11 11 10 9 8 9 9 9 9 9 9 10 11 11 11 11 12 12 13 13 14 14 15 15 15 16 16 16 16 16 16 16 16 16 16 16 16 16
17 15 13 11 10 7 7 8 9 11 12 12 12 12 13 12 10 10 11 11 11 11 12 13 13 13 13 13 14 14 15 15 16 17 17 17 18 18 18 18 18 18 18 19 19 19 19 19 19
18 18 17 15 13 10 6 7 10 11 13 14 13 14 16 16 15 12 12 14 14 14 15 15 16 15 15 15 15 15 16 16 17 18 18 19 20 20 20 21 21 21 21 21 21 21 22 22 22
19 19 20 21 18 16 12 10 11 13 15 16 16 18 20 19 18 15 14 16 18 19 19 19 18 18 17 17 17 17 17 18 19 19 20 21 21 22 22 22 22 22 22 22 22 22 23 23 24
20 20 24 25 23 21 19 16 15 18 18 18 19 21 23 21 21 21 19 19 22 23 24 24 22 21 20 20 20 20 20 20 20 21 21 22 22 22 23 23 23 23 23 23 23 23 23 23 23
21 21 26 28 28 26 24 22 20 21 23 23 23 26 27 27 27 27 25 23 25 26 26 26 25 24 23 23 23 23 23 22 22 22 23 24 24 24 23 23 23 23 24 24 24 24 23 22 23
20 21 25 27 29 29 28 26 25 24 25 26 28 30 31 31 30 29 29 29 28 27 27 28 29 28 27 26 26 25 24 24 23 23 24 24 25 25 25 24 24 23 23 24 24 24 23 22 21
20 20 20 21 23 27 29 29 29 27 27 29 31 33 34 33 32 31 32 32 32 31 30 31 33 33 30 29 28 26 26 25 24 25 26 25 24 25 25 25 24 23 23 22 22 22 21 20 20
19 18 17 17 20 22 27 28 27 26 26 28 31 33 35 36 36 37 36 36 36 35 35 35 36 36 34 32 30 29 28 27 27 28 27 25 24 25 25 25 24 23 22 21 21 20 19 17 17
18 16 14 13 16 19 23 23 21 23 24 26 30 33 35 37 39 40 40 38 39 41 42 40 38 37 35 34 33 31 30 29 28 28 26 25 25 25 24 24 24 23 22 21 20 19 18 17 16
16 15 14 13 13 15 17 17 17 20 23 27 30 33 35 37 40 42 43 42 42 41 42 41 41 37 35 34 31 30 30 28 27 27 26 26 25 24 23 24 23 22 21 20 20 19 18 17 16
14 14 13 13 12 13 15 17 18 22 25 29 31 33 36 38 40 41 43 44 42 40 39 39 37 35 32 32 30 28 28 29 28 27 26 24 25 25 24 24 23 22 21 21 21 20 19 18 17
12 13 14 15 14 15 17 19 21 25 28 31 34 35 36 37 37 38 38 39 39 39 38 36 33 30 30 29 29 28 27 27 27 26 25 24 24 24 24 24 23 23 22 21 21 21 20 19 18
11 15 18 19 20 20 21 22 25 28 30 33 35 36 36 36 36 37 37 37 36 35 34 33 31 30 28 29 28 29 28 27 27 27 26 25 25 25 25 24 24 24 23 22 22 21 21 21 20
12 14 17 20 23 26 26 26 28 31 33 33 33 33 33 34 34 34 36 35 33 34 33 32 32 30 29 28 30 30 28 27 27 26 26 25 26 26 25 25 25 25 24 24 23 23 22 22 22
9 12 14 17 20 24 25 26 27 29 31 31 31 31 31 31 32 33 33 32 30 32 32 32 31 31 30 30 29 27 27 27 26 26 26 26 26 27 27 26 27 27 26 26 25 25 24 24 24
7 10 12 13 14 15 18 21 23 25 27 27 28 29 29 29 31 30 30 31 31 32 33 33 33 34 34 33 32 32 31 30 30 30 30 30 29 29 29 29 29 29 29 29 29 28 27 27 27
8 9 9 10 11 12 14 17 19 21 21 22 24 26 27 27 27 27 30 32 33 34 36 36 37 38 38 38 38 37 37 36 35 35 35 34 34 34 33 32 31 31 32 32 32 31 30 30 30
9 9 8 8 10 12 15 17 18 18 19 21 22 23 25 27 27 28 30 34 36 38 40 41 43 44 44 44 45 45 44 44 43 43 42 42 41 40 39 38 36 36 36 36 35 35 34 34 33
10 11 12 13 14 15 17 18 19 21 23 26 28 29 31 30 30 33 35 38 41 43 44 46 48 49 50 51 51 51 51 51 50 50 50 49 48 48 47 45 43 42 41 40 39 38 38 38 37
11 13 14 16 16 17 19 21 22 25 28 30 32 34 35 36 38 40 42 44 46 48 49 50 51 52 53 54 55 56 55 55 55 55 55 55 54 54 53 53 51 49 47 46 45 43 42 42 41
14 14 15 16 18 20 23 24 26 28 31 34 37 38 40 43 44 46 48 50 52 54 55 56 56 57 57 57 58 59 59 59 59 59 59 59 59 58 58 58 57 56 54 52 51 48 46 45 44
13 14 16 17 19 23 26 28 30 33 35 38 40 41 43 45 48 50 52 54 56 58 60 61 62 63 63 63 64 64 63 63 63 63 63 63 62 62 62 61 60 60 59 58 56 54 52 50 47
15 16 17 18 21 24 29 32 34 37 39 41 43 45 48 50 53 55 56 58 60 62 64 65 67 68 69 69 69 70 69 69 68 68 68 68 67 66 65 64 64 63 63 62 60 58 56 53 51

GEFSSGP_500_meanwind_054.txt.gz
Wind_Speed
9 8 7 6 5 5 4 5 6 6 5 5 4 3 1 2 3 5 5 6 7 7 7 8 9 8 8 7 7 6 6 5 5 4 4 5 5 6 6 7 7 7 7 7 7 7 7 7 7
10 10 9 8 7 6 4 5 6 5 6 5 4 3 2 3 3 5 6 7 8 8 9 10 10 10 9 8 8 8 7 7 6 6 5 5 6 6 7 7 7 7 7 6 6 6 6 6 6
12 12 11 10 9 7 5 6 5 4 5 5 5 4 4 5 5 6 7 8 9 10 11 12 12 11 10 10 9 9 9 9 8 8 8 7 7 8 8 8 8 8 8 7 7 6 6 6 6
14 14 13 12 11 9 8 8 7 6 5 5 5 5 5 5 6 8 9 10 10 11 12 13 13 12 11 11 11 11 11 11 11 10 10 10 10 10 10 11 11 10 10 9 9 8 8 7 7
16 16 15 14 14 13 12 12 10 9 8 8 7 7 6 6 7 9 10 11 11 12 13 13 13 13 12 13 13 14 13 13 13 13 13 13 13 13 13 13 13 13 12 12 11 11 11 10 9
19 18 18 17 17 16 16 15 14 13 10 9 8 7 6 7 8 9 10 11 12 13 14 14 14 13 14 14 14 15 15 15 16 16 16 16 17 17 17 16 16 16 15 15 15 15 14 14 13
21 20 20 20 20 19 19 18 16 14 13 10 9 9 8 7 8 10 11 12 13 14 14 15 15 15 15 16 16 17 17 18 18 18 19 19 19 19 19 19 19 19 18 18 18 18 17 17 16
22 22 22 22 23 23 23 21 19 16 14 12 11 10 10 9 9 10 12 13 14 14 16 17 17 18 18 18 19 20 20 20 20 20 21 21 21 21 21 21 21 21 21 20 20 20 20 19 19
23 23 23 24 25 25 25 24 22 19 16 14 13 13 12 11 10 11 13 14 16 17 18 20 21 22 21 21 21 22 22 23 23 23 23 22 22 22 22 22 22 22 21 21 21 21 21 21 20
23 23 24 27 28 27 26 25 23 21 18 16 15 14 14 13 13 13 15 17 19 20 22 24 25 25 25 26 26 26 25 25 25 25 25 24 23 23 23 23 22 22 22 21 21 21 21 21 21
23 23 25 27 28 28 28 27 26 24 22 19 18 18 17 17 17 17 19 21 23 24 25 27 28 29 29 30 30 30 30 29 28 28 27 26 25 25 24 23 23 23 22 21 21 21 21 22 22
23 22 24 26 28 29 29 29 29 28 25 24 22 22 21 21 22 22 23 25 26 26 28 29 30 31 32 33 34 33 33 32 31 30 30 29 28 27 25 24 23 24 23 22 21 21 21 21 22
24 23 24 25 27 30 30 31 32 30 28 28 27 26 26 26 26 26 26 27 28 29 31 32 33 35 35 34 35 36 35 35 33 33 32 31 29 28 27 26 25 24 24 23 23 22 22 21 21
23 22 23 25 28 30 32 32 32 32 31 31 31 30 30 30 29 28 28 29 30 32 33 34 36 39 39 37 37 38 37 36 37 36 34 33 31 30 29 28 27 26 25 24 23 23 22 22 21
22 22 23 25 28 30 32 32 33 33 34 34 33 33 33 32 31 29 30 30 31 32 33 36 38 40 40 40 39 38 37 39 38 37 37 35 33 30 29 28 27 26 24 24 23 23 22 22 20
21 21 23 25 27 28 29 30 31 31 32 33 33 33 32 32 31 31 31 31 31 32 34 37 39 40 41 42 43 41 38 38 36 35 34 33 31 30 28 27 27 25 25 24 23 22 22 21 21
20 21 22 23 25 26 26 26 26 27 28 29 30 30 30 31 31 32 32 32 33 35 36 38 40 41 42 42 40 39 36 34 33 31 29 31 31 29 29 28 26 25 24 24 23 22 22 21 20
19 20 21 22 23 23 23 23 23 23 24 25 27 28 29 30 31 32 34 34 35 36 38 39 40 41 41 38 37 34 30 29 29 27 26 27 29 29 28 26 25 23 23 24 23 22 21 21 21
18 19 20 21 23 23 23 23 22 22 23 24 25 27 29 31 33 34 35 37 38 39 40 42 41 40 37 34 31 29 26 23 24 25 24 24 26 26 25 24 25 24 24 24 24 23 22 22 22
17 17 18 20 21 23 24 24 24 24 24 25 27 29 31 33 34 36 38 40 41 41 41 41 41 39 37 33 30 28 25 21 21 23 24 25 26 25 25 25 25 25 25 25 25 25 24 24 23
14 14 15 17 19 20 22 23 23 25 26 27 29 32 34 36 37 39 40 41 42 42 42 39 39 38 37 34 32 30 28 27 25 24 24 26 26 27 27 27 26 26 26 26 26 26 26 26 25
11 12 13 15 16 17 17 19 20 22 25 26 28 29 31 32 34 35 37 38 39 40 40 39 38 38 38 36 35 33 31 31 30 29 28 27 28 29 29 28 28 28 28 28 29 28 28 28 28
8 8 9 11 12 13 15 15 16 19 21 22 24 26 27 28 29 31 32 34 34 36 36 36 37 38 38 39 39 38 36 35 35 34 33 32 32 32 31 31 31 31 31 32 32 32 32 31 31
6 7 8 8 9 10 12 13 14 16 18 20 22 24 26 27 29 29 30 32 33 35 35 36 38 39 40 42 42 42 42 41 41 40 39 39 38 38 37 37 37 37 37 36 36 36 36 35 34
6 8 9 9 9 10 11 12 14 16 18 21 23 25 27 29 31 32 33 34 36 38 38 39 40 42 43 44 45 46 46 46 46 46 46 45 45 45 45 44 44 43 43 42 41 40 40 39 38
8 10 11 12 12 12 13 14 15 18 21 23 26 28 30 32 34 35 36 37 39 40 41 42 43 45 46 48 49 49 50 50 51 51 51 51 51 51 51 51 50 50 49 48 47 46 45 44 43
9 11 13 14 14 15 15 16 18 20 23 26 29 31 33 34 36 38 39 41 42 44 45 46 47 49 50 51 52 53 54 54 55 55 56 56 57 57 56 56 56 56 55 55 54 52 51 49 48
10 12 14 15 17 18 18 20 22 24 27 29 32 34 36 38 40 41 43 44 46 47 50 51 53 54 55 56 57 57 57 57 58 59 59 60 61 61 61 61 61 61 61 60 59 59 57 56 54
11 13 15 17 18 20 22 24 25 28 31 33 36 38 40 42 44 46 47 49 51 53 54 56 56 57 58 59 59 58 57 57 57 57 57 58 60 62 64 65 66 66 66 65 65 64 63 61 60
12 14 16 18 19 21 24 26 28 31 34 36 39 41 44 46 48 50 52 55 56 57 58 58 58 59 59 59 59 57 56 55 54 53 52 53 53 55 58 60 63 66 69 70 69 68 68 66 64

GEFSSGP_500_meanwind_060.txt.gz
Wind_Speed
5 4 4 4 4 5 7 7 6 5 4 3 3 2 2 2 3 3 3 3 4 5 5 5 5 6 7 8 9 10 10 10 9 9 8 6 6 5 4 4 4 3 3 2 2 2 2 2 2
7 7 6 6 4 5 9 7 7 7 6 5 4 4 3 3 4 3 3 3 4 5 5 5 6 7 8 9 10 10 10 10 11 10 9 8 8 7 6 6 5 5 4 3 2 2 2 1 1
9 9 8 8 7 9 10 9 8 8 9 8 7 6 5 5 5 5 4 4 5 5 5 6 7 8 8 9 10 11 11 11 11 11 11 11 10 10 9 9 8 7 6 6 5 4 4 4 3
12 11 10 10 11 13 13 12 11 11 10 10 10 9 8 8 7 6 6 5 6 6 6 7 7 8 9 10 10 11 11 12 12 13 13 13 13 13 12 11 11 10 9 8 8 7 7 6 6
14 13 13 12 15 16 16 15 13 12 12 12 11 11 10 10 9 8 8 7 7 7 7 8 8 9 10 10 11 12 13 14 14 14 15 15 15 15 15 14 14 13 12 11 11 10 10 10 9
16 15 15 15 18 19 19 17 16 14 13 13 13 13 12 11 10 10 9 8 9 9 10 10 11 11 12 13 14 15 16 16 16 17 17 18 18 18 18 17 17 16 15 15 14 13 13 13 12
18 18 18 19 20 22 21 19 17 15 14 14 14 14 13 12 11 11 10 10 11 11 12 13 13 14 15 16 17 18 19 19 19 19 20 21 21 21 21 21 20 19 18 17 17 16 16 16 15
20 19 19 21 22 24 23 21 18 16 15 14 14 15 14 14 13 12 12 12 13 14 15 15 16 17 18 19 20 21 21 22 22 22 23 23 24 24 24 23 23 22 20 20 19 19 19 19 18
21 21 20 22 24 25 25 23 20 18 16 15 15 15 15 15 14 14 14 15 15 16 17 18 19 20 21 22 23 23 24 25 25 25 26 27 27 27 26 25 25 24 23 22 21 21 21 21 20
23 22 22 24 24 25 25 24 23 20 19 18 17 17 16 17 16 16 17 18 19 20 20 21 22 23 25 25 26 27 27 27 28 28 29 29 29 29 29 28 27 26 25 24 23 22 21 21 21
24 23 24 24 25 25 25 25 25 23 22 21 19 19 19 19 20 20 20 21 22 23 23 24 25 25 27 28 28 29 30 30 30 31 31 31 32 32 31 31 29 28 28 26 25 24 23 23 23
25 24 24 25 26 26 26 26 27 26 26 24 23 22 22 22 22 23 24 25 25 26 26 26 27 28 29 30 31 31 32 33 33 33 33 33 34 34 34 33 32 31 30 28 27 26 25 24 24
25 24 24 24 25 26 27 27 28 28 28 27 26 26 25 24 25 26 27 28 29 29 30 30 30 31 32 33 34 34 34 35 35 35 36 35 35 36 36 36 36 34 31 30 28 27 26 26 25
24 23 23 24 24 25 26 27 28 28 29 29 29 29 28 28 28 28 29 30 31 32 33 33 33 34 35 36 37 36 36 37 37 37 36 36 37 37 38 38 38 36 34 32 30 29 28 27 26
22 21 21 22 23 24 24 26 27 27 28 29 29 30 30 31 31 31 32 32 33 33 35 35 36 36 37 38 39 38 38 38 37 37 36 37 38 38 38 38 39 38 37 35 33 31 29 28 27
17 16 17 20 21 22 22 24 24 25 26 27 27 28 28 30 30 31 32 32 34 35 37 38 38 38 39 40 39 39 39 38 37 36 35 36 36 37 38 37 38 40 38 36 33 33 30 29 27
12 11 13 18 19 19 20 22 23 23 23 23 23 23 24 26 28 29 31 33 35 36 38 39 39 40 41 40 40 39 40 39 37 36 37 37 35 35 36 35 36 37 37 37 35 33 32 29 29
9 9 12 15 17 18 19 21 22 22 22 22 22 22 23 24 26 28 30 32 35 37 38 40 41 41 41 41 41 41 40 39 37 36 36 36 34 31 30 33 33 34 35 35 35 34 33 31 30
9 8 11 14 15 17 18 20 21 22 22 22 22 23 24 25 27 29 31 33 35 37 39 40 42 42 43 42 41 40 39 38 37 35 33 32 31 30 30 32 32 34 35 34 33 32 32 31 30
6 6 9 13 13 14 16 17 19 20 20 21 21 23 24 26 28 30 31 33 34 36 38 40 41 41 41 41 40 40 40 38 36 34 33 31 30 29 28 29 30 32 33 34 32 31 31 30 30
5 5 8 10 10 10 11 13 15 16 17 18 19 21 23 25 27 29 31 33 33 34 36 37 38 39 39 39 40 40 39 38 36 35 33 31 30 30 29 29 30 31 31 32 31 31 31 31 31
5 7 6 6 6 8 6 9 13 13 15 16 18 19 21 23 25 27 29 30 31 33 34 35 36 38 39 39 39 39 38 37 37 36 35 34 32 31 32 32 32 33 33 33 33 33 33 34 33
5 5 5 5 5 7 7 7 14 14 15 16 18 20 22 24 26 28 30 31 33 34 36 37 38 39 40 40 40 40 40 40 40 39 39 39 38 37 36 36 36 36 36 36 36 36 36 36 36
4 4 5 6 6 8 10 9 15 16 16 18 19 21 23 25 28 30 31 33 34 36 37 38 39 40 41 42 43 43 44 44 44 44 43 43 42 42 42 42 41 41 40 40 40 40 40 39 39
3 5 6 6 7 10 13 12 15 16 17 19 21 23 25 27 29 31 32 34 36 37 39 40 41 42 43 44 45 46 47 47 47 47 48 47 47 47 47 46 47 46 46 46 45 45 45 44 43
5 5 6 6 7 11 13 13 15 17 19 20 22 24 26 28 30 32 34 36 37 39 41 42 43 43 44 45 45 46 46 47 47 47 48 49 49 50 52 52 52 52 52 51 52 52 51 50 49
6 6 7 8 9 9 12 15 15 17 20 21 23 25 27 30 32 34 36 38 39 41 42 43 44 44 45 45 45 44 44 45 46 46 47 48 49 50 51 52 54 56 56 57 58 57 57 57 55
5 6 7 7 7 8 13 17 18 19 21 23 25 28 30 32 34 37 38 40 42 43 44 44 45 44 43 42 42 42 43 44 45 46 47 48 49 50 51 53 54 56 58 60 61 63 63 62 61
7 7 7 8 9 9 11 17 19 21 23 25 28 30 32 34 37 39 41 42 43 44 45 45 44 43 43 43 44 44 45 46 46 47 48 49 50 51 52 54 55 57 59 61 63 64 66 67 66
7 8 9 11 12 13 15 20 21 23 25 27 30 32 34 37 39 41 43 44 45 46 46 45 45 44 45 45 45 45 47 49 50 51 51 52 52 54 55 55 56 57 58 61 63 66 67 69 70

GEFSSGP_500_meanwind_066.txt.gz
Wind_Speed
6 5 5 4 4 4 4 6 5 7 8 9 9 8 9 8 8 8 9 9 8 9 8 8 7 7 6 6 6 7 8 9 10 10 10 10 11 11 10 10 9 9 8 8 7 7 6 6 6
6 6 5 5 6 10 8 7 7 10 11 10 10 9 11 10 9 9 9 10 9 9 9 8 8 7 6 6 7 7 8 9 9 10 10 10 11 11 11 10 10 10 9 8 8 7 7 6 6
7 6 5 5 7 10 10 10 10 12 12 12 12 11 11 11 10 11 10 10 10 10 9 8 8 8 7 7 7 8 8 9 9 10 11 11 11 11 11 11 11 11 10 10 9 9 8 8 7
9 7 5 3 7 10 11 12 10 9 12 11 11 13 12 12 12 12 12 11 11 10 9 8 8 9 8 8 9 9 10 11 11 12 12 13 13 13 13 13 12 12 12 11 11 10 10 10 9
11 9 5 4 7 12 12 15 12 11 11 11 13 16 14 13 14 14 13 13 12 11 11 10 10 10 11 11 12 12 13 14 14 14 14 15 15 15 15 15 14 14 13 13 13 12 12 12 12
13 11 8 2 6 11 15 17 12 11 11 12 13 17 17 14 13 14 14 14 14 12 12 13 13 13 14 14 14 15 16 17 17 18 18 18 17 17 17 17 17 16 16 15 15 15 15 15 14
15 15 12 7 8 12 17 20 15 14 13 12 13 19 20 16 12 14 15 15 15 14 15 15 15 16 16 17 18 18 19 19 20 20 20 20 20 20 20 20 19 19 18 18 17 17 17 17 17
18 17 14 8 7 11 17 21 17 15 14 15 16 21 21 18 15 15 16 17 18 17 17 18 18 18 19 20 20 21 21 21 21 22 22 22 22 23 23 22 22 22 21 20 20 19 19 19 19
21 19 15 8 8 11 18 22 18 16 15 18 18 21 21 18 17 17 18 19 20 21 20 20 20 21 21 22 22 23 23 23 24 24 25 25 25 26 25 25 24 24 24 23 23 22 21 21 21
22 21 16 12 15 17 20 23 20 16 16 20 20 19 20 17 18 19 20 21 21 23 23 23 22 23 23 23 24 24 25 25 26 27 27 28 28 28 28 27 26 26 26 26 25 25 24 23 23
24 22 20 18 19 23 24 22 20 19 21 24 24 20 21 19 20 21 23 23 23 24 25 26 25 25 27 27 26 28 28 28 29 29 30 30 30 30 30 29 28 28 29 28 28 27 27 26 26
25 23 22 22 23 25 23 23 23 22 24 27 27 25 25 23 22 24 25 26 26 25 27 29 28 28 30 31 30 31 31 31 31 32 32 32 32 32 32 31 30 30 30 31 31 30 29 28 28
23 23 22 23 25 26 24 23 24 24 26 27 27 27 27 26 26 27 27 27 26 28 30 32 32 31 32 33 33 33 34 34 34 35 35 35 34 34 34 35 34 33 32 32 33 33 31 31 30
20 20 20 20 22 22 22 22 24 25 26 26 26 27 28 28 28 29 31 30 30 32 33 34 33 35 35 36 36 37 38 37 37 38 38 38 37 35 36 36 35 35 35 34 34 33 32 32 32
16 15 15 16 18 19 19 20 23 24 24 24 25 26 27 28 29 30 32 33 34 35 36 36 36 36 37 38 39 39 41 40 40 40 40 39 38 37 37 37 36 36 36 35 35 34 34 33 33
8 10 12 13 13 15 15 18 23 22 22 23 23 24 25 26 28 29 31 33 34 34 35 36 36 37 38 39 40 41 42 43 42 40 40 39 38 38 38 38 38 37 37 36 36 35 35 35 34
7 10 11 14 14 12 12 18 22 22 22 22 22 22 23 24 26 27 28 30 31 33 34 36 37 38 39 41 42 43 44 43 43 42 41 40 39 38 39 39 38 37 36 36 35 34 34 35 35
10 10 13 15 11 11 13 19 22 21 21 21 21 21 22 23 24 25 27 28 30 31 33 35 37 38 39 40 41 42 42 43 42 41 40 39 39 39 39 38 36 37 37 36 35 33 33 33 34
6 8 10 10 9 13 17 20 20 19 20 20 20 20 20 21 22 24 25 27 29 31 33 35 37 38 39 40 41 41 41 42 42 41 40 40 39 39 38 38 37 37 36 35 33 32 32 31 32
7 9 10 13 14 16 17 18 16 17 16 16 17 18 18 19 20 22 24 26 28 30 32 34 35 37 38 40 41 41 42 42 42 42 41 41 40 39 39 39 37 36 35 34 33 33 32 31 32
8 11 10 11 13 16 15 15 16 14 12 12 14 16 17 19 20 22 24 26 28 30 32 33 35 36 38 39 40 41 41 42 43 42 42 41 39 39 39 39 38 37 36 36 35 34 34 33 33
10 11 11 10 12 14 17 19 18 11 9 8 12 15 17 19 20 22 24 26 28 30 31 33 35 36 38 39 41 42 43 43 43 43 43 42 41 40 40 40 39 38 38 37 36 35 35 35 34
7 9 10 12 15 17 18 18 16 10 6 11 13 16 19 20 21 23 25 26 28 30 32 33 34 36 38 40 41 42 43 44 44 44 44 43 43 43 42 41 41 41 40 39 38 37 37 36 36
6 9 12 14 17 17 12 13 12 12 15 16 18 19 20 21 22 24 26 28 30 31 33 35 36 38 39 41 41 42 43 44 44 45 46 45 45 44 43 43 42 42 42 42 41 40 40 39 38
7 11 13 14 15 8 4 7 10 15 17 19 21 22 23 23 24 26 28 30 32 34 35 36 38 39 40 41 41 42 43 43 44 45 45 45 45 45 44 44 43 42 43 43 43 43 43 43 42
7 11 15 17 20 13 7 7 10 15 17 20 22 23 24 25 27 29 31 33 34 36 38 39 40 41 41 41 42 42 43 43 43 43 44 44 43 44 44 44 43 43 43 44 44 44 45 45 46
7 8 10 10 13 15 15 13 12 16 19 23 24 25 25 27 29 31 34 36 37 39 41 42 43 43 43 43 43 43 43 43 43 43 43 44 44 45 45 45 44 43 44 45 46 47 47 47 47
8 8 8 6 8 9 16 19 18 21 23 25 26 26 27 29 30 33 35 37 39 41 42 43 44 45 44 44 43 43 42 42 43 43 44 45 46 46 47 47 47 47 47 47 48 49 50 51 51
9 8 9 7 8 7 12 22 23 25 25 26 26 28 29 30 32 35 37 39 41 43 44 45 46 46 45 45 44 43 42 43 44 45 46 47 48 49 49 50 51 51 51 51 50 51 51 52 54
8 10 10 10 10 9 10 22 25 26 26 27 28 29 30 32 34 36 39 41 43 44 45 46 46 46 46 45 45 44 44 44 45 47 48 49 50 51 52 53 53 54 54 54 54 54 54 54 55

GEFSSGP_500_meanwind_072.txt.gz
Wind_Speed
3 2 2 2 3 4 6 4 4 6 6 7 7 7 7 7 7 6 6 6 6 6 7 6 6 5 6 5 5 5 5 6 6 7 7 8 8 9 9 9 9 9 9 9 9 9 8 8 7
5 3 2 2 3 4 5 5 5 7 9 9 9 8 7 7 7 6 6 6 6 6 6 6 6 5 6 6 6 6 6 6 7 7 8 8 9 9 9 9 9 9 9 9 9 9 8 8 7
7 5 3 2 2 4 5 5 6 8 10 12 12 11 10 8 8 8 7 7 6 6 6 5 5 5 6 6 6 6 7 7 7 8 8 9 9 10 10 10 9 10 10 10 9 9 9 9 8
9 8 5 4 4 4 4 6 8 10 11 12 13 13 12 10 9 9 9 8 6 6 6 6 6 6 7 7 7 8 8 8 9 9 10 10 11 12 11 11 11 11 11 11 10 10 10 10 9
12 10 7 7 7 6 5 6 9 13 14 14 15 16 14 12 11 10 9 9 7 6 7 7 7 8 8 8 8 8 9 9 10 11 11 12 12 13 13 12 12 12 12 12 12 12 12 12 11
15 12 9 7 8 7 5 6 10 14 17 18 18 17 15 13 11 10 10 9 9 8 8 8 8 9 10 9 9 9 10 10 11 12 12 13 13 13 13 14 14 13 13 13 13 14 14 14 14
17 13 9 8 7 5 5 8 11 16 18 20 20 19 17 14 11 10 10 10 10 10 10 10 10 10 11 11 11 11 12 12 13 13 13 13 14 14 14 15 15 15 15 15 15 15 15 15 15
19 16 10 10 11 9 7 10 14 18 20 23 23 20 18 16 13 11 10 11 11 11 11 11 12 12 11 11 12 12 13 14 15 15 15 15 15 16 16 17 17 17 16 16 16 16 16 17 17
22 18 14 14 15 15 13 12 16 20 23 24 24 22 20 19 16 13 12 13 13 13 13 13 13 13 12 13 13 14 15 16 16 17 17 17 18 18 18 18 19 19 19 18 18 18 18 18 19
24 19 17 19 19 19 17 16 17 21 24 25 25 25 24 22 19 18 15 15 15 15 16 14 13 14 15 16 16 17 18 18 19 19 20 20 21 21 21 21 21 21 21 21 21 21 20 20 21
25 21 21 22 22 22 20 19 21 23 25 27 27 26 26 25 23 20 20 19 19 17 16 15 16 16 17 19 19 20 20 21 22 22 23 23 23 24 24 24 24 24 24 23 23 22 23 22 23
26 24 23 23 23 24 23 22 23 25 27 28 29 29 28 28 26 25 23 21 20 19 18 19 19 19 20 22 22 23 23 23 24 25 25 26 27 26 27 27 27 27 27 26 25 25 25 25 25
24 23 23 24 24 25 25 24 25 26 28 29 30 30 29 29 27 26 23 23 22 20 21 23 22 23 24 24 26 25 26 26 27 28 28 28 28 29 29 29 29 30 29 28 26 26 26 27 26
20 20 21 22 22 24 25 26 27 27 28 29 29 29 28 27 26 25 25 25 24 23 25 24 23 25 26 27 28 28 28 28 29 29 30 30 31 31 31 31 30 30 30 29 28 27 27 27 28
17 18 18 19 20 21 23 25 27 27 27 28 27 27 27 25 25 25 25 26 25 26 25 26 27 27 27 29 29 29 30 31 31 31 31 32 32 33 33 33 32 31 30 30 30 29 29 30 29
14 14 15 16 18 19 23 25 25 25 24 24 24 23 24 24 24 25 25 25 25 25 26 27 27 28 29 30 31 31 32 33 33 33 34 34 34 35 34 33 31 31 31 31 31 31 30 30 30
8 10 14 14 16 18 20 22 22 21 21 21 21 22 23 23 23 24 24 24 25 25 26 27 28 28 30 31 31 32 33 34 34 35 35 35 35 35 34 33 32 32 32 32 32 32 31 31 30
5 6 11 12 13 16 18 19 19 19 20 20 21 20 21 22 23 23 23 23 23 24 26 27 28 29 30 31 32 33 34 35 36 36 37 37 37 37 36 35 35 35 34 33 33 32 32 32 31
5 4 6 10 12 13 16 20 21 21 19 19 19 20 19 19 19 19 20 21 22 23 25 26 28 29 31 32 33 34 35 37 37 37 38 38 38 38 38 37 37 37 36 35 34 33 33 32 33
5 4 6 8 11 13 16 19 20 17 16 16 17 16 15 14 14 15 18 19 21 23 25 26 28 29 31 33 34 35 36 37 38 39 39 39 39 39 39 39 38 38 37 36 36 34 34 34 33
6 6 5 6 12 15 15 15 15 15 13 12 12 11 9 10 12 13 16 18 20 21 23 25 28 30 32 34 35 36 37 38 39 40 40 41 41 40 39 39 39 38 37 37 37 36 35 33 33
7 7 7 8 10 10 11 13 13 11 7 4 4 4 5 7 10 12 14 16 18 20 22 24 27 29 32 34 36 37 38 39 40 40 41 41 41 40 40 40 39 38 37 37 37 37 36 35 34
8 11 10 9 9 10 10 11 9 7 4 1 0 2 5 7 9 11 13 16 18 20 22 24 27 29 31 33 35 36 37 38 39 40 41 41 41 40 40 40 39 38 38 37 37 37 36 35 35
9 10 10 10 10 10 8 5 3 2 4 4 2 4 6 9 11 13 15 17 19 22 24 27 28 30 32 34 35 36 37 38 39 39 40 40 39 39 39 39 39 38 38 38 38 38 37 36 36
9 10 10 10 10 11 9 5 5 5 5 4 4 7 10 12 15 17 19 21 24 26 29 31 33 34 36 37 38 38 38 39 39 39 39 39 39 39 39 39 38 38 38 38 38 38 38 38 37
8 9 10 10 11 11 10 7 7 6 7 7 8 10 13 16 18 20 23 26 28 31 33 35 37 39 40 41 41 40 40 40 40 39 39 39 39 39 39 39 39 39 38 38 38 38 38 39 39
8 9 10 10 10 10 9 9 11 11 11 12 13 16 18 20 22 24 27 30 32 34 37 39 41 42 43 42 42 41 41 40 40 39 39 40 40 40 40 41 41 41 41 40 40 40 40 40 40
10 10 9 9 10 10 9 10 14 16 17 17 19 21 23 24 26 28 30 33 35 38 40 42 43 44 44 43 42 42 41 40 40 40 40 40 41 41 42 43 43 43 43 43 42 42 42 42 42
9 9 9 10 11 12 14 15 17 18 20 21 23 24 26 27 29 31 33 35 38 40 42 43 44 44 44 43 43 42 41 41 41 40 41 41 42 42 43 43 44 44 45 45 45 44 44 44 44
8 10 11 12 13 15 17 19 19 21 23 24 25 27 28 29 31 33 35 37 39 41 42 43 44 44 43 43 42 41 41 41 41 41 42 43 43 43 44 44 45 45 45 46 47 47 47 46 46

GEFSSGP_500_meanwind_078.txt.gz
Wind_Speed
6 5 5 5 4 5 4 3 3 3 4 6 7 8 8 9 8 8 6 6 5 5 4 4 4 4 5 5 5 5 5 5 5 5 5 5 5 6 6 6 6 6 6 6 6 6 6 6 6
8 8 8 7 6 6 5 4 3 2 3 4 5 6 7 8 8 8 7 6 6 5 4 4 4 4 4 4 5 5 5 5 5 5 5 5 6 6 6 6 6 6 6 6 5 5 5 4 4
10 10 9 10 9 8 7 6 5 4 3 4 4 5 7 9 9 9 8 6 5 5 5 5 5 4 4 4 4 5 5 5 5 6 6 7 7 8 8 7 7 7 7 7 6 6 5 5 4
13 12 12 11 12 12 11 10 8 6 5 4 4 6 7 9 10 10 9 7 5 5 5 5 5 5 5 5 6 5 5 5 6 6 7 8 8 9 9 9 9 9 8 8 8 8 7 7 6
15 14 14 14 14 14 14 13 11 9 8 6 5 6 8 10 11 10 9 8 7 7 7 6 6 6 7 7 7 7 6 7 7 8 8 9 10 10 11 11 11 11 10 10 10 10 10 9 9
18 17 16 16 16 17 16 15 13 11 10 9 8 8 9 11 11 11 10 8 8 8 9 8 8 8 8 8 8 8 8 8 9 9 10 10 11 12 12 12 13 13 13 12 12 12 12 12 12
21 19 18 18 18 19 19 17 16 14 12 11 10 10 10 11 12 11 11 10 9 9 10 11 11 10 10 9 9 9 9 10 10 10 11 11 12 13 13 14 14 14 14 14 14 14 14 14 14
24 21 20 20 21 22 22 20 19 17 15 13 12 10 10 11 12 12 11 11 12 11 11 12 12 12 12 11 11 11 11 12 12 12 12 13 14 14 15 15 16 16 16 16 16 16 16 16 16
25 23 21 22 25 25 25 24 21 20 17 15 13 12 12 12 13 13 13 12 13 14 14 14 14 14 14 14 13 12 13 14 14 14 15 15 15 16 17 17 17 18 18 18 19 19 18 17 18
26 23 23 25 27 28 27 26 24 22 19 17 15 14 14 14 14 15 15 14 15 15 16 17 16 16 16 17 16 16 16 16 17 17 17 18 18 18 19 20 20 20 21 21 21 21 21 20 20
25 24 25 27 29 30 29 28 26 24 22 19 17 16 16 15 16 17 17 17 17 18 19 19 18 18 18 18 19 20 21 20 19 20 21 20 21 21 21 22 22 23 23 24 24 23 23 23 23
24 24 26 28 29 30 30 29 27 26 24 21 19 18 17 18 18 19 19 18 19 19 20 21 20 20 20 21 22 23 23 23 22 22 23 24 24 24 24 24 24 25 26 26 26 26 26 26 26
22 22 24 27 29 30 31 31 29 27 25 23 21 19 19 20 20 20 20 19 20 20 20 22 22 21 21 22 23 23 25 26 25 26 25 26 26 25 25 26 27 27 27 28 28 27 28 27 27
18 18 20 23 27 29 30 30 30 28 26 24 22 21 22 22 22 21 21 20 20 22 22 21 23 23 23 23 24 24 25 24 25 24 25 26 27 28 27 27 28 29 28 27 28 28 29 28 29
13 14 17 20 23 26 29 29 28 27 26 25 23 22 22 22 23 22 22 22 21 21 21 21 22 22 22 22 23 23 24 25 25 25 26 26 27 28 28 30 31 30 30 30 29 29 29 29 30
10 11 13 16 20 23 25 25 24 25 25 25 24 24 24 23 23 21 21 20 19 19 20 20 20 20 20 22 23 24 24 25 26 26 27 28 29 30 30 30 31 30 31 31 30 29 30 30 30
8 10 12 14 17 20 22 23 23 24 24 24 24 24 24 23 21 20 19 19 18 19 19 19 19 20 21 22 23 24 25 26 26 27 28 29 30 31 31 32 32 32 31 31 31 31 32 31 30
7 8 10 13 14 17 19 21 21 22 23 22 22 22 23 22 21 18 18 17 17 17 18 19 19 21 21 22 23 25 26 27 28 29 30 31 32 32 32 33 33 33 33 33 33 34 33 33 32
6 6 7 9 11 13 15 17 19 20 21 20 19 19 20 20 18 17 17 15 16 16 17 18 19 20 21 23 24 26 28 29 31 32 33 33 33 34 34 35 35 35 35 35 35 35 35 34 34
7 7 6 6 7 10 12 13 15 17 19 18 18 19 19 17 16 15 14 14 15 16 17 18 19 21 23 24 26 28 30 31 33 34 35 35 36 36 36 37 37 37 37 37 36 36 36 35 35
6 7 6 6 6 7 9 11 12 14 14 15 16 17 16 14 13 12 11 12 14 15 17 19 21 23 25 27 29 31 32 33 34 35 36 37 37 38 38 37 37 37 37 37 37 37 36 36 36
6 7 7 6 5 5 6 7 7 8 9 10 11 11 10 9 10 11 12 13 15 16 19 20 22 24 27 29 31 32 33 34 35 36 37 38 38 39 39 38 38 37 37 37 37 37 37 36 36
6 6 6 5 3 2 3 4 3 3 4 5 6 7 8 8 8 9 11 13 15 17 19 21 23 25 27 29 31 32 34 35 36 36 37 37 37 37 38 37 37 36 36 36 37 37 37 36 36
6 6 6 5 5 3 2 0 0 2 3 5 5 7 8 9 10 11 13 14 16 19 21 23 25 27 29 30 32 33 34 35 36 36 36 36 35 35 35 35 35 35 35 35 35 35 36 36 36
5 6 5 5 5 4 3 2 2 2 3 3 5 6 8 10 12 14 15 17 18 20 22 24 26 28 30 32 34 34 35 35 35 34 34 34 34 34 34 34 34 34 34 34 34 35 35 36 36
6 6 6 5 4 3 1 1 2 3 4 4 6 8 10 12 13 15 16 18 20 22 24 26 28 31 32 34 34 34 35 34 34 34 33 33 33 33 33 34 34 35 35 35 36 36 37 37 37
6 7 7 6 4 3 1 1 2 4 5 6 7 9 11 12 13 15 17 19 22 24 26 28 31 33 34 34 34 34 34 34 34 34 34 34 34 34 34 35 35 35 36 36 37 37 38 39 39
6 7 7 6 5 3 2 2 4 5 7 8 9 10 11 13 14 16 18 21 23 25 28 30 32 34 34 35 35 35 35 35 35 35 35 35 35 35 35 35 36 36 37 37 38 38 39 40 40
7 7 8 7 5 4 3 3 5 7 9 10 11 11 12 14 16 18 20 22 25 27 30 32 34 35 35 36 36 36 36 36 36 36 36 36 35 35 35 35 36 36 37 38 38 39 39 39 40
8 9 8 7 6 6 7 6 7 9 10 11 12 13 14 15 17 20 22 25 27 29 32 34 35 36 36 36 37 37 37 37 37 37 36 36 36 36 36 37 37 38 38 39 39 39 39 40 41

GEFSSGP_500_meanwind_084.txt.gz
Wind_Speed
8 8 7 7 7 7 7 7 7 7 4 1 0 1 2 3 3 3 2 1 1 1 1 1 1 0 1 2 2 2 2 1 1 0 1 1 1 1 1 1 2 2 1 1 1 1 1 1 1
9 9 9 9 8 8 10 9 8 8 6 3 2 2 1 2 2 2 2 1 1 1 1 1 1 1 2 3 4 4 4 4 3 2 2 2 2 2 2 2 1 1 1 2 2 2 2 2 2
11 11 11 11 11 11 12 11 10 9 7 5 4 3 2 2 2 3 2 2 1 1 2 2 3 3 4 5 6 6 6 6 6 5 5 4 4 4 3 3 3 3 3 3 3 4 4 4 4
14 13 13 13 14 15 14 13 12 10 9 7 7 6 5 4 4 4 3 3 3 2 3 4 5 5 6 7 7 8 8 8 8 8 7 7 6 6 6 5 5 5 5 5 5 6 6 6 6
17 16 16 16 18 18 17 15 14 13 12 10 9 8 7 6 5 5 4 4 4 5 5 6 7 8 9 9 9 9 9 9 9 10 9 9 9 8 8 7 7 7 7 7 7 7 8 8 8
18 18 18 18 21 21 20 18 16 16 14 12 11 10 9 7 6 6 5 5 5 6 6 7 9 10 10 11 11 11 11 11 11 11 11 11 10 10 9 9 9 9 9 9 9 9 9 9 9
20 20 20 21 22 23 23 20 19 18 17 15 13 12 11 9 7 6 6 6 6 6 7 9 10 11 12 12 12 13 13 13 13 13 13 13 12 12 12 12 11 11 11 11 11 10 11 11 11
21 21 21 22 23 26 25 22 21 20 19 18 16 15 12 11 8 7 7 8 8 9 10 11 12 12 13 14 15 15 15 15 15 15 15 15 15 15 15 14 14 13 13 13 13 12 13 13 13
21 21 22 24 25 27 27 24 22 22 21 19 18 16 14 12 10 9 9 10 10 11 12 13 14 15 15 16 16 17 17 17 18 18 18 18 18 18 17 17 16 16 16 16 15 15 15 15 15
20 21 23 25 26 28 28 26 24 23 23 22 20 19 17 13 12 11 11 12 13 13 14 15 16 18 18 18 19 19 19 20 20 21 22 21 21 21 20 19 19 18 18 18 18 18 17 17 17
19 19 21 23 25 26 27 27 25 25 24 24 23 20 17 15 14 13 14 15 14 15 16 17 18 19 20 20 22 22 22 22 22 22 23 23 23 23 22 21 22 21 21 21 21 20 20 20 19
16 17 18 20 23 23 25 26 25 26 26 25 23 19 18 17 16 16 17 16 16 17 18 19 19 20 21 21 23 23 23 22 22 22 22 23 23 22 23 23 23 23 23 22 22 21 21 21 21
13 13 15 16 19 20 23 24 24 25 26 25 23 22 20 19 19 19 19 18 19 19 20 20 21 21 22 23 24 24 24 23 22 22 22 22 21 21 22 23 24 24 24 23 23 23 22 21 21
12 11 11 12 14 16 19 21 22 22 23 23 23 22 21 21 20 20 20 21 20 21 21 21 22 22 21 21 21 21 22 21 21 21 22 23 22 22 22 21 22 23 23 23 24 24 24 24 23
12 11 11 10 10 11 14 17 19 20 21 21 21 21 21 20 19 20 21 21 20 20 21 22 21 20 21 21 20 19 19 21 20 19 19 20 20 21 22 23 23 24 25 25 25 25 25 26 25
12 12 11 11 8 7 9 13 16 18 19 20 21 21 20 20 19 19 20 19 19 19 19 19 19 18 18 18 18 18 19 19 19 19 20 20 22 23 23 24 24 25 26 27 27 26 26 26 27
13 10 9 11 8 4 6 11 13 15 17 18 18 18 19 19 19 19 19 19 19 18 17 17 17 17 16 16 17 17 18 19 20 20 21 23 23 24 25 26 26 26 27 28 28 28 28 28 28
9 9 8 9 7 4 5 8 11 14 15 16 17 17 18 19 18 18 18 18 17 17 16 16 16 15 15 15 16 17 18 19 20 21 23 24 24 26 27 27 28 28 29 30 30 30 30 30 30
9 10 10 9 7 5 5 6 9 12 14 16 17 17 17 17 16 16 15 15 14 13 13 13 14 15 15 16 17 18 20 21 22 23 24 25 26 27 28 29 29 30 30 31 31 32 32 32 32
9 10 11 9 6 5 5 5 7 9 12 14 16 16 16 16 14 14 13 12 12 12 13 13 14 15 16 18 19 20 22 23 24 25 26 27 28 29 30 30 31 31 31 31 32 32 33 33 33
9 10 10 8 6 4 5 4 5 7 9 10 12 13 12 12 12 11 11 12 12 11 12 13 14 15 17 19 21 23 24 25 26 27 28 29 30 31 31 31 32 32 32 32 32 32 33 33 33
8 9 9 8 7 6 5 5 4 3 3 5 7 7 8 9 9 10 11 11 11 11 12 13 15 17 19 21 23 24 26 27 29 30 30 30 31 31 31 31 31 31 32 32 32 33 33 33 33
8 9 9 7 6 6 5 4 4 3 3 2 3 4 5 7 8 9 9 9 10 12 14 16 17 19 21 23 24 26 27 29 29 30 30 30 30 30 31 31 31 31 31 31 32 32 33 33 33
8 8 8 7 7 6 4 4 4 4 4 3 3 4 6 6 8 9 10 11 12 14 16 18 19 21 23 24 25 27 28 28 28 28 29 30 30 30 30 30 30 31 31 31 31 32 32 32 33
7 7 8 9 8 6 5 4 4 5 4 4 5 5 6 7 9 10 11 13 14 16 18 20 21 22 23 24 25 26 26 27 27 28 28 29 29 29 29 30 30 31 31 31 31 32 32 32 33
6 5 4 3 4 5 5 5 5 5 5 5 6 6 8 9 10 11 13 14 16 18 19 21 22 22 23 24 25 25 26 26 27 27 28 28 29 29 29 30 30 31 31 32 32 32 32 33 33
6 4 4 4 5 5 6 6 6 6 7 7 8 9 10 11 12 13 14 16 17 19 20 21 22 22 23 24 24 24 25 26 27 27 28 28 29 29 29 30 30 31 31 31 32 32 32 33 34
6 5 4 2 2 3 7 7 7 7 8 9 10 11 11 12 13 14 15 16 18 19 20 21 21 22 22 23 23 24 25 26 27 28 28 29 29 30 30 30 31 31 32 32 33 33 34 34 35
7 6 4 3 3 1 4 8 9 9 9 10 10 11 11 12 13 14 16 17 18 19 20 20 21 21 22 23 24 25 26 27 28 28 29 29 30 31 31 32 32 32 33 33 33 34 34 35 36
8 7 6 5 6 5 5 10 11 10 10 10 10 11 11 12 14 15 16 17 18 19 20 20 21 22 22 23 25 26 27 28 29 30 31 32 33 33 33 33 33 34 34 34 34 35 35 35 35

GEFSSGP_500_meanwind_090.txt.gz
Wind_Speed
8 7 7 7 8 7 3 1 4 7 9 8 7 8 9 8 7 5 5 5 4 3 3 3 2 1 2 3 4 4 5 5 5 5 6 6 6 6 6 6 5 5 4 4 4 4 4 3 3
9 9 9 9 9 11 10 4 6 8 10 9 9 9 10 8 7 6 6 5 5 5 4 3 3 3 3 4 5 6 6 6 7 7 7 7 7 8 8 7 7 6 5 5 5 5 4 4 4
11 11 11 10 9 11 13 10 12 11 11 11 11 11 10 9 8 7 7 6 6 5 5 4 4 5 5 6 7 8 8 8 9 9 9 9 9 9 9 9 8 8 7 7 6 6 6 6 5
13 13 13 12 8 11 15 15 15 14 13 12 13 12 11 11 10 9 8 6 6 6 5 5 6 6 7 7 8 9 9 10 10 11 11 11 11 10 10 10 10 9 9 8 8 8 7 7 7
15 14 13 11 9 15 17 18 18 17 15 14 15 15 13 11 11 9 8 7 7 7 7 6 7 8 8 8 9 10 11 11 12 12 12 12 12 12 11 11 11 11 11 10 10 9 9 8 8
15 15 13 11 11 17 20 21 21 20 19 18 17 17 14 11 11 9 8 8 7 7 8 7 8 8 9 10 10 11 12 13 13 14 14 14 13 13 13 13 13 13 13 12 12 12 11 11 10
16 15 14 13 14 18 21 24 23 23 20 18 18 20 18 13 9 9 8 8 8 7 8 8 9 9 10 11 12 13 13 14 15 15 15 15 15 15 15 15 15 15 14 14 14 14 14 13 13
15 15 14 13 14 16 23 27 25 25 22 21 22 23 22 13 8 9 9 9 8 8 8 9 10 11 12 13 14 15 15 16 16 16 17 17 18 18 18 18 18 17 17 16 16 16 16 15 15
13 13 13 14 16 17 23 26 25 26 24 24 25 25 22 13 10 10 10 11 9 9 10 10 11 12 14 15 16 18 18 18 18 19 20 21 21 21 21 20 19 19 19 18 18 18 18 17 17
12 13 14 19 22 23 25 27 25 23 24 24 26 26 22 14 10 11 11 12 11 12 12 12 13 14 15 17 18 19 19 19 20 22 23 23 23 24 22 21 20 20 21 20 20 20 20 19 19
12 14 17 20 20 22 23 24 24 23 24 25 22 22 21 17 14 13 13 13 13 13 14 13 15 16 17 18 19 19 19 20 21 23 23 23 23 24 24 22 21 20 19 20 21 21 21 20 20
12 13 15 17 18 19 21 23 23 26 24 24 22 19 19 16 16 14 15 13 13 15 15 15 16 18 19 20 20 20 19 21 21 21 22 21 21 20 21 21 20 19 19 18 19 21 20 21 21
11 12 13 14 15 18 19 20 21 24 26 22 21 18 19 17 18 16 16 15 15 16 16 16 17 18 20 21 21 19 20 20 20 19 19 19 19 19 20 19 18 18 18 18 18 19 20 19 19
9 10 11 12 12 15 15 15 18 22 23 20 18 18 18 19 20 17 15 16 16 15 17 17 18 18 19 20 21 19 19 19 18 17 18 19 19 19 19 19 18 19 19 18 19 20 21 20 20
9 11 13 14 14 13 14 14 16 17 18 17 16 16 18 19 16 15 13 16 17 17 18 18 18 18 19 19 19 17 18 17 17 17 18 19 19 20 19 19 20 20 20 21 21 21 21 21 21
13 14 16 14 16 15 15 14 14 13 12 12 14 16 15 17 16 14 14 14 16 16 17 17 18 19 19 17 16 15 17 16 17 18 18 18 19 20 20 20 21 21 22 22 23 23 22 23 24
17 17 18 18 16 16 16 11 10 12 11 12 14 15 14 12 14 14 13 14 15 15 15 15 16 16 16 16 15 15 16 16 17 18 19 19 20 21 22 23 22 23 23 24 24 24 24 25 25
13 15 17 17 16 15 14 10 8 6 10 12 14 13 13 11 11 12 12 12 14 14 14 14 14 14 14 14 15 16 17 18 18 19 20 21 22 23 24 25 25 25 26 26 26 26 26 27 27
10 12 15 16 14 13 11 11 8 6 7 10 13 13 12 11 11 12 12 12 12 13 13 13 14 14 15 14 15 17 17 18 19 20 21 23 24 25 26 27 27 27 27 27 27 27 27 27 28
10 13 14 14 12 10 9 8 7 5 5 10 11 11 11 11 11 12 12 12 12 11 12 12 14 14 15 16 16 17 17 19 21 22 23 24 25 26 27 27 27 27 27 27 27 27 27 27 27
12 13 13 13 12 10 7 6 6 5 6 8 9 9 9 9 10 10 11 12 11 11 12 13 13 15 15 16 16 17 19 21 22 23 24 25 25 26 26 26 27 27 27 27 27 27 27 27 28
12 11 10 10 10 8 8 6 7 6 4 3 4 6 7 7 8 9 9 10 10 11 12 12 13 14 15 16 17 19 20 22 23 24 24 24 25 25 26 26 27 27 27 27 27 27 27 27 27
10 8 7 9 10 7 7 7 7 4 4 2 2 4 5 5 5 6 7 7 8 9 10 11 13 15 16 17 19 20 22 23 23 24 24 25 25 26 26 26 26 26 26 27 27 27 27 27 28
8 7 9 11 10 7 9 8 7 5 4 4 2 2 3 4 4 5 6 6 8 9 11 12 14 16 17 18 19 20 22 23 23 24 24 25 26 26 26 26 26 26 27 27 27 27 28 28 29
8 8 12 15 13 11 12 9 9 8 5 5 4 3 4 4 4 5 6 7 9 11 12 14 15 17 18 18 19 20 21 22 23 24 25 26 27 27 26 26 26 27 27 28 28 28 29 30 30
9 7 10 12 13 9 10 10 10 9 7 7 6 5 5 5 5 6 6 8 10 12 14 15 16 17 18 19 20 20 21 22 23 24 25 26 27 27 27 28 28 29 29 30 30 30 31 31 32
8 6 7 8 9 7 5 9 9 9 9 9 8 8 8 7 7 8 8 10 12 14 15 16 17 18 18 19 20 21 22 23 24 25 26 27 27 28 29 30 30 31 31 32 32 32 33 33 33
9 8 7 4 8 9 5 7 9 11 12 11 11 10 10 9 10 10 10 12 13 14 15 17 18 19 19 20 21 21 22 23 24 26 27 28 29 30 31 31 31 32 33 33 34 34 34 34 34
10 8 8 7 7 8 11 9 10 12 14 14 13 12 11 11 11 12 13 13 14 15 16 17 18 19 19 20 22 22 23 24 26 27 28 29 30 31 32 32 33 34 34 35 35 35 35 35 35
9 9 10 9 7 7 11 14 13 15 16 15 15 14 13 13 14 14 14 15 15 16 17 18 18 19 19 21 22 23 25 26 27 29 30 31 32 33 34 34 35 36 36 36 36 36 36 37 37

GEFSSGP_500_meanwind_096.txt.gz
Wind_Speed
11 11 10 10 9 9 9 10 9 8 7 7 6 7 8 4 1 1 2 2 3 3 2 2 3 3 3 2 1 0 2 3 4 5 6 6 7 7 8 8 8 7 7 6 6 6 5 5 4
13 13 12 11 11 10 10 10 9 8 9 8 8 6 7 5 4 4 4 4 4 3 3 4 4 3 3 3 2 2 2 3 5 5 6 6 7 8 8 8 8 8 7 7 7 6 6 5 5
14 14 13 12 10 10 10 10 9 10 12 12 11 7 7 7 7 7 6 5 4 4 5 5 5 4 4 4 3 3 3 4 5 6 6 7 7 8 8 8 8 8 8 8 8 7 6 6 5
16 14 13 11 10 11 11 10 10 12 14 16 14 12 9 9 9 8 7 6 5 5 5 6 6 5 4 4 4 4 4 4 5 6 6 7 8 8 9 9 9 9 9 9 9 9 8 7 6
17 14 12 10 11 13 12 12 13 16 18 19 18 17 13 11 10 9 8 6 6 6 6 6 6 5 5 4 3 4 4 5 5 6 7 7 8 9 9 9 10 10 10 11 11 10 10 9 8
17 15 12 11 13 14 14 13 15 17 21 23 22 20 16 14 11 10 9 8 7 7 6 6 6 6 5 4 4 5 5 6 7 8 8 9 10 10 10 11 12 12 12 12 12 12 12 11 9
16 14 13 13 14 15 14 14 16 20 24 26 27 24 19 13 12 12 10 9 9 8 7 6 6 6 5 4 4 5 6 7 8 10 11 11 12 12 13 14 14 14 14 14 14 14 13 13 11
15 14 14 15 16 17 17 17 20 22 26 27 28 26 22 16 13 12 12 11 10 8 8 7 6 6 6 6 6 7 8 9 11 12 12 13 14 14 15 16 17 16 16 16 16 16 16 15 14
15 14 15 17 18 19 20 20 23 25 28 29 28 27 23 19 17 14 15 13 11 9 8 7 6 6 7 8 8 8 10 12 13 13 14 15 15 15 16 17 18 18 17 17 17 18 17 17 16
14 13 14 16 18 19 20 22 24 27 28 29 29 28 24 20 17 14 14 13 12 10 8 8 6 7 7 8 9 10 12 13 14 15 15 16 16 16 17 17 16 17 17 17 17 17 18 18 18
12 11 11 13 15 17 18 21 23 24 26 28 29 27 22 21 18 15 15 14 12 11 9 8 7 7 8 9 10 11 12 14 15 15 14 14 14 16 16 15 15 15 15 16 16 16 16 17 18
8 8 9 11 13 15 17 19 22 24 25 25 24 22 19 18 17 16 16 15 12 11 9 7 7 7 8 9 10 11 12 13 14 13 13 13 13 13 14 13 13 13 14 14 15 14 15 16 17
8 8 9 10 12 14 16 18 19 20 21 23 21 20 19 17 15 14 13 14 11 10 10 8 8 8 9 9 10 11 12 13 12 12 12 12 12 12 12 12 12 11 12 13 14 15 15 16 16
7 8 9 11 12 14 16 17 17 18 20 21 18 17 17 16 14 13 11 10 9 9 9 8 7 7 8 10 10 10 10 10 9 10 11 10 10 10 10 11 11 11 12 13 14 15 16 16 16
9 9 10 12 15 17 17 15 15 17 18 17 16 14 14 14 13 11 9 9 7 7 7 6 6 7 8 9 9 9 9 8 9 9 10 10 10 10 11 12 12 12 13 14 15 16 17 17 18
10 10 12 13 16 18 17 16 16 16 13 13 11 10 10 10 10 9 8 8 8 7 6 5 5 6 8 8 8 9 9 9 9 9 10 10 11 11 12 13 14 14 15 15 16 17 18 19 19
11 14 14 16 17 18 18 16 16 14 10 9 8 7 7 8 8 7 8 9 8 7 5 4 4 5 6 7 7 8 8 9 9 10 11 11 12 12 13 14 14 16 16 17 17 18 18 19 20
14 15 16 17 17 18 18 15 13 11 8 6 5 4 6 5 7 7 6 7 7 6 4 3 3 5 5 6 6 7 8 9 10 11 11 12 13 14 15 15 16 17 17 18 18 18 18 19 19
14 15 16 16 17 17 16 13 11 8 5 3 4 4 5 6 5 5 5 5 6 5 4 3 4 4 5 6 7 8 8 9 10 10 11 12 13 14 15 16 17 17 18 18 18 18 19 19 19
13 14 15 14 15 15 15 13 12 8 4 1 4 5 6 5 4 4 3 3 4 4 3 3 4 4 6 6 7 8 8 9 9 10 11 12 13 14 15 15 16 17 17 18 18 19 19 20 20
12 13 14 14 14 14 14 11 11 10 6 4 5 5 5 5 5 5 4 3 2 2 2 3 4 4 5 6 7 8 8 8 9 10 11 12 13 14 15 16 17 17 18 18 18 18 19 20 21
11 11 12 12 12 13 10 9 11 9 7 5 5 7 6 5 6 5 4 2 1 0 0 2 3 4 4 5 6 7 8 9 9 10 11 12 13 15 16 16 17 18 18 18 18 18 19 19 20
10 9 10 10 10 9 8 8 9 9 8 7 6 5 6 5 6 5 4 3 1 0 1 1 2 3 4 5 6 7 8 9 9 10 11 12 13 15 16 17 17 18 18 19 19 20 20 20 21
8 7 7 7 8 7 7 8 8 8 8 7 7 6 6 4 4 4 4 3 1 0 1 2 3 4 4 5 6 7 8 9 10 11 12 13 15 16 17 17 18 19 20 20 21 21 22 22 22
8 8 7 7 7 6 6 6 6 6 7 8 8 7 6 5 5 4 3 2 1 1 2 3 3 4 5 6 7 7 8 10 11 12 14 15 16 17 18 19 20 21 22 22 23 23 23 24 24
9 8 8 8 7 7 6 5 5 5 5 6 7 7 6 5 5 4 3 2 1 0 2 3 4 4 5 6 7 8 10 11 12 14 15 16 17 18 20 20 21 22 23 23 24 24 25 26 26
9 9 9 8 7 8 4 3 4 4 4 3 4 5 5 4 4 3 3 2 1 1 2 3 4 5 6 7 8 9 11 12 13 15 16 18 19 20 22 23 23 24 25 25 26 26 27 28 29
10 10 9 9 9 8 6 4 3 3 4 3 3 3 4 4 2 2 1 1 1 2 3 4 5 6 7 8 9 10 12 13 14 16 18 19 20 22 24 24 26 27 27 28 29 30 30 30 31
12 11 11 11 11 10 8 6 5 5 4 3 3 4 4 4 3 2 2 2 2 3 4 5 6 7 8 9 10 12 13 14 16 17 19 20 22 24 25 26 28 29 29 30 31 32 33 33 33
14 14 14 13 12 11 11 9 8 7 6 5 4 4 4 4 4 3 3 3 4 4 5 6 7 8 9 10 12 13 14 16 17 19 21 22 24 26 27 29 30 31 32 33 34 34 35 35 35

GEFSSGP_500_meanwind_102.txt.gz
Wind_Speed
14 13 13 13 13 12 13 14 13 12 10 9 8 5 3 2 3 3 4 3 4 4 4 4 4 4 3 3 4 4 4 4 4 5 5 5 6 6 7 7 7 7 7 7 7 7 6 6 5
15 14 14 14 14 14 14 15 14 13 12 11 9 5 2 2 2 4 3 3 4 5 5 5 6 5 4 3 3 2 2 2 3 4 4 5 6 6 6 7 7 7 7 7 6 7 6 6 5
16 15 15 15 16 16 16 16 15 14 13 13 11 7 5 3 3 3 3 4 4 6 7 7 7 6 5 4 2 1 0 1 2 3 4 5 5 6 7 7 7 7 7 7 6 6 6 6 5
16 16 16 16 18 18 17 17 16 16 15 15 14 11 8 5 4 4 4 5 6 7 9 8 7 6 6 4 3 2 1 1 2 3 4 5 6 6 7 8 8 8 7 7 7 7 7 6 5
16 16 17 18 19 19 19 19 18 17 16 15 14 12 10 6 6 5 6 7 8 9 10 10 8 7 6 5 4 3 2 2 3 3 5 6 7 8 9 9 9 9 9 8 8 7 7 7 6
16 16 17 18 20 20 20 20 20 20 19 17 16 15 11 9 9 8 9 10 11 12 11 11 10 8 7 7 6 5 4 3 3 4 6 7 9 10 10 11 11 11 10 10 10 9 8 8 7
16 16 17 19 20 21 21 21 21 22 22 20 18 17 14 12 11 11 11 12 13 13 13 13 11 10 9 8 7 5 4 4 4 5 6 8 9 11 11 12 12 12 12 12 12 11 10 9 9
16 16 17 18 20 22 22 23 23 23 23 21 20 18 16 14 14 13 13 13 14 14 14 13 12 11 9 8 7 6 6 6 6 7 8 9 11 12 13 13 13 14 14 14 13 12 11 10 10
16 16 16 18 20 22 22 23 23 23 23 23 22 21 18 16 15 15 15 15 15 15 15 14 12 12 11 9 8 8 7 7 8 9 9 10 12 12 14 14 14 15 15 14 14 13 12 12 11
15 15 16 17 18 20 21 22 23 24 24 24 24 23 22 19 18 17 17 17 17 16 16 16 14 13 12 10 9 8 8 8 8 9 9 10 12 12 13 14 15 15 15 14 14 13 13 13 12
13 14 14 15 16 17 18 20 21 22 23 22 22 22 21 20 19 18 18 19 19 18 18 16 16 14 13 11 9 9 9 9 9 10 10 10 11 12 12 13 14 14 15 14 13 14 13 13 13
12 12 12 13 14 15 16 17 19 21 21 20 19 18 18 17 17 18 18 18 19 18 18 17 16 15 14 12 11 10 10 10 10 10 11 11 11 11 11 12 13 13 13 12 12 12 13 12 12
11 11 11 13 14 14 16 18 19 20 19 19 19 18 17 17 17 17 18 18 19 19 19 18 17 16 14 12 12 10 10 10 10 11 10 10 10 10 11 12 12 13 12 12 12 12 13 13 13
11 11 12 13 13 15 16 17 19 18 18 18 17 16 15 15 16 17 16 16 17 18 20 19 19 18 15 13 12 12 11 11 11 10 10 10 10 10 11 11 12 13 12 13 13 14 14 14 14
11 11 13 14 14 15 17 17 17 17 16 14 13 13 14 13 14 15 15 16 17 19 21 20 18 17 15 13 12 11 10 11 10 10 10 9 9 10 10 11 12 13 13 13 14 14 15 16 16
11 12 13 13 14 15 17 17 17 15 13 10 9 9 10 9 11 12 13 14 15 17 19 18 16 15 13 11 10 9 9 9 9 8 8 8 9 10 11 12 13 13 14 14 14 15 15 16 16
11 12 12 13 14 15 16 17 15 13 11 8 6 6 8 9 10 11 11 12 13 15 15 16 15 13 12 10 9 8 7 7 7 7 8 9 10 11 11 12 13 14 14 15 15 16 16 16 16
11 11 12 12 13 14 15 15 13 10 8 6 3 5 6 8 9 11 11 12 14 14 14 14 14 13 11 9 8 7 6 5 5 7 8 9 10 10 11 12 13 14 14 15 15 15 16 16 17
10 11 12 12 13 14 14 13 11 8 6 3 1 4 6 6 8 10 12 13 14 13 14 14 13 12 10 9 7 6 5 5 5 6 7 8 9 10 11 12 13 13 14 14 15 15 16 16 17
10 11 12 12 13 13 12 11 11 7 4 1 2 5 6 6 8 10 12 12 13 11 12 11 11 11 9 7 6 5 5 5 5 6 6 7 8 9 10 11 11 12 13 14 15 15 16 16 17
9 10 11 11 11 11 10 10 10 8 5 3 3 4 6 7 9 10 12 13 12 10 10 9 10 8 7 6 5 4 4 4 4 4 5 6 7 8 9 10 11 12 13 14 15 15 16 16 17
9 9 10 10 10 10 9 9 8 7 6 5 3 4 5 6 9 10 11 12 11 9 9 8 8 7 7 6 5 4 3 3 3 4 5 6 7 8 9 10 11 12 13 14 14 15 16 16 17
10 10 10 10 10 9 8 7 7 7 6 4 3 4 5 7 9 11 11 11 10 9 8 8 7 6 6 5 5 4 3 3 3 3 4 5 6 7 9 10 11 12 13 14 15 15 16 17 18
9 9 9 9 9 9 8 7 6 6 5 4 4 4 5 7 9 9 9 9 9 8 7 7 6 6 6 5 4 3 3 3 3 3 4 5 6 8 10 11 12 13 14 15 16 17 18 18 19
9 9 9 9 9 8 7 6 6 5 4 3 3 4 4 6 7 8 8 8 8 8 8 7 7 7 6 5 4 3 3 3 3 3 4 5 7 8 10 12 13 14 15 16 18 19 20 20 20
9 10 10 10 9 8 7 6 6 5 4 2 1 1 2 4 5 6 7 7 8 8 8 8 7 7 6 5 4 4 3 3 3 4 5 6 7 9 11 13 14 15 17 18 20 21 22 22 23
11 10 10 10 9 8 7 6 6 6 4 3 2 2 2 3 5 6 7 7 8 8 8 7 7 7 6 5 5 4 4 4 4 5 6 7 9 11 12 14 16 18 19 21 22 23 23 24 25
12 11 11 11 11 10 8 7 7 6 5 5 4 4 4 5 6 6 7 7 8 8 8 8 8 7 6 6 6 5 5 5 6 7 8 9 11 13 14 16 18 20 21 22 24 24 25 26 27
14 13 12 12 12 12 9 7 8 7 6 6 6 6 6 7 8 8 8 9 9 9 9 9 9 8 8 8 8 7 7 8 8 9 11 12 13 15 17 18 20 22 23 25 26 26 26 27 28
16 15 15 14 14 13 12 7 9 9 9 9 9 8 8 8 9 10 9 10 10 10 10 10 10 9 9 9 9 9 10 11 12 12 13 15 16 17 19 21 22 23 25 26 27 28 28 29 30